REU9978 LFPG-FMCZ

Flight info

Callsign REU9978
Flight time 9h 26m
Altitude 33000
Route OKASI DCT OKEKO DCT MOU DCT MADIV DCT MOKIP DCT TUFTA DCT KOGAS DCT MEDAM DCT NITAM DCT MOGBO DCT UPDIN DCT PNZ DCT MASOT DCT LEVDI/N0484F350 DCT NIMAN DCT ARLOS UN4 SALUN N705 BOPIX N710 TAKRI P751 LXR M999 JDW M559 RIBAM G650 RASKA/N0495F360 G650 ASM/N0499F350 UR780 SETIT DCT XADOX/N0493F370 DCT DWA UN304 MOGDU UR775 UNPAR/N0489F380 UR775 BERIL/N0494F370 UR775 MAROF UM307 DZP
Aircraft B77W/H-SDE1E2E3FGHIJ2J3J4J5M1RWXY/LB1D1

Departure

Time 2026-04-26 02:08
Airport Charles de Gaulle International Airport (LFPG)

Arrival

Time 2026-04-26 11:34
Airport Dzaoudzi Pamandzi International Airport (FMCZ)
Time Latitude Longitude Altitude Speed Heading
2026-04-26 01:38 49.00177 2.56038 359 ft 0 kts 26°
2026-04-26 01:55 49.00167 2.56031 368 ft 4 kts 21°
2026-04-26 01:55 49.00141 2.56021 368 ft 4 kts
2026-04-26 01:56 49.00114 2.56020 367 ft 4 kts
2026-04-26 01:56 49.00091 2.56017 365 ft 4 kts 343°
2026-04-26 01:56 49.00077 2.56036 367 ft 4 kts 270°
2026-04-26 01:56 49.00081 2.56076 367 ft 4 kts 256°
2026-04-26 01:57 49.00086 2.56111 366 ft 1 kts 265°
2026-04-26 01:57 49.00086 2.56112 366 ft 0 kts 265°
2026-04-26 01:59 49.00084 2.56078 367 ft 6 kts 265°
2026-04-26 01:59 49.00081 2.56017 363 ft 6 kts 265°
2026-04-26 01:59 49.00077 2.55955 364 ft 6 kts 265°
2026-04-26 01:59 49.00074 2.55894 367 ft 6 kts 267°
2026-04-26 02:00 49.00072 2.55833 367 ft 6 kts 268°
2026-04-26 02:00 49.00073 2.55771 361 ft 6 kts 270°
2026-04-26 02:00 49.00072 2.55710 359 ft 6 kts 266°
2026-04-26 02:00 49.00062 2.55651 362 ft 6 kts 248°
2026-04-26 02:01 49.00039 2.55594 363 ft 7 kts 234°
2026-04-26 02:01 49.00006 2.55524 367 ft 8 kts 237°
2026-04-26 02:01 48.99985 2.55443 366 ft 8 kts 256°
2026-04-26 02:01 48.99979 2.55355 362 ft 8 kts 266°
2026-04-26 02:02 48.99975 2.55268 365 ft 8 kts 266°
2026-04-26 02:02 48.99970 2.55181 359 ft 8 kts 266°
2026-04-26 02:02 48.99966 2.55094 359 ft 8 kts 265°
2026-04-26 02:02 48.99962 2.55022 363 ft 3 kts 265°
2026-04-26 02:03 48.99960 2.54990 365 ft 3 kts 265°
2026-04-26 02:03 48.99957 2.54948 364 ft 5 kts 265°
2026-04-26 02:03 48.99953 2.54876 361 ft 8 kts 262°
2026-04-26 02:03 48.99913 2.54817 367 ft 10 kts 182°
2026-04-26 02:04 48.99843 2.54824 362 ft 10 kts 174°
2026-04-26 02:04 48.99773 2.54842 365 ft 10 kts 157°
2026-04-26 02:04 48.99727 2.54921 365 ft 10 kts 117°
2026-04-26 02:04 48.99696 2.55019 368 ft 10 kts 115°
2026-04-26 02:05 48.99684 2.55057 362 ft 2 kts 115°
2026-04-26 02:05 48.99667 2.55111 364 ft 8 kts 115°
2026-04-26 02:05 48.99645 2.55185 363 ft 8 kts 115°
2026-04-26 02:05 48.99621 2.55259 365 ft 8 kts 116°
2026-04-26 02:06 48.99587 2.55327 364 ft 9 kts 126°
2026-04-26 02:06 48.99576 2.55408 361 ft 4 kts 84°
2026-04-26 02:06 48.99577 2.55410 361 ft 0 kts 84°
2026-04-26 02:07 48.99591 2.55653 362 ft 53 kts 85°
2026-04-26 02:07 48.99620 2.56178 363 ft 96 kts 85°
2026-04-26 02:07 48.99690 2.57503 361 ft 153 kts 85°
2026-04-26 02:08 48.99786 2.59337 378 ft 191 kts 85°
2026-04-26 02:08 48.99859 2.61360 792 ft 192 kts 87°
2026-04-26 02:08 48.99917 2.63406 1303 ft 195 kts 86°
2026-04-26 02:08 49.00021 2.65477 1831 ft 197 kts 84°
2026-04-26 02:09 49.00155 2.67619 2148 ft 213 kts 84°
2026-04-26 02:09 49.00358 2.70797 2385 ft 241 kts 84°
2026-04-26 02:09 49.00463 2.72548 2696 ft 249 kts 85°
2026-04-26 02:09 49.00607 2.75223 3236 ft 257 kts 85°
2026-04-26 02:10 49.00736 2.77963 3852 ft 261 kts 89°
2026-04-26 02:10 49.00554 2.80733 4411 ft 266 kts 99°
2026-04-26 02:10 49.00208 2.83525 5072 ft 270 kts 100°
2026-04-26 02:10 48.99868 2.86344 5726 ft 272 kts 99°
2026-04-26 02:11 48.99547 2.89193 6378 ft 275 kts 99°
2026-04-26 02:11 48.99236 2.92075 6991 ft 278 kts 99°
2026-04-26 02:11 48.98928 2.94960 7559 ft 281 kts 98°
2026-04-26 02:11 48.98440 2.97877 8065 ft 285 kts 119°
2026-04-26 02:12 48.97127 3.00072 8542 ft 290 kts 150°
2026-04-26 02:12 48.95236 3.01067 9103 ft 291 kts 176°
2026-04-26 02:12 48.93229 3.00770 9641 ft 292 kts 199°
2026-04-26 02:12 48.91403 2.99461 10130 ft 292 kts 212°
2026-04-26 02:13 48.89629 2.97848 10474 ft 304 kts 213°
2026-04-26 02:13 48.87773 2.96112 10619 ft 324 kts 213°
2026-04-26 02:13 48.85796 2.94265 10789 ft 344 kts 213°
2026-04-26 02:13 48.83693 2.92316 10958 ft 364 kts 212°
2026-04-26 02:14 48.81484 2.90289 11384 ft 376 kts 212°
2026-04-26 02:14 48.79221 2.88227 12002 ft 383 kts 212°
2026-04-26 02:14 48.76918 2.86140 12811 ft 386 kts 212°
2026-04-26 02:14 48.74601 2.84049 13701 ft 389 kts 212°
2026-04-26 02:15 48.72260 2.81939 14458 ft 394 kts 212°
2026-04-26 02:15 48.69890 2.79807 15156 ft 398 kts 212°
2026-04-26 02:15 48.67495 2.77656 15877 ft 402 kts 212°
2026-04-26 02:15 48.65073 2.75484 16592 ft 406 kts 212°
2026-04-26 02:16 48.62632 2.73297 17297 ft 411 kts 212°
2026-04-26 02:16 48.60158 2.71084 18040 ft 414 kts 212°
2026-04-26 02:16 48.57671 2.68863 18715 ft 418 kts 212°
2026-04-26 02:16 48.55154 2.66616 19313 ft 422 kts 212°
2026-04-26 02:17 48.52616 2.64351 19912 ft 426 kts 212°
2026-04-26 02:17 48.50023 2.62167 20414 ft 428 kts 205°
2026-04-26 02:17 48.47107 2.61069 20721 ft 441 kts 184°
2026-04-26 02:17 48.44043 2.61324 21256 ft 443 kts 176°
2026-04-26 02:18 48.40947 2.61666 21819 ft 447 kts 178°
2026-04-26 02:18 48.37875 2.61911 22434 ft 449 kts 179°
2026-04-26 02:18 48.34701 2.62132 23037 ft 453 kts 179°
2026-04-26 02:18 48.31581 2.62348 23564 ft 457 kts 179°
2026-04-26 02:19 48.28409 2.62724 23927 ft 460 kts 171°
2026-04-26 02:19 48.25366 2.64302 24172 ft 467 kts 153°
2026-04-26 02:19 48.22520 2.66693 24624 ft 470 kts 152°
2026-04-26 02:19 48.19644 2.69052 25124 ft 472 kts 153°
2026-04-26 02:20 48.16728 2.71348 25639 ft 473 kts 153°
2026-04-26 02:20 48.13797 2.73600 26117 ft 476 kts 154°
2026-04-26 02:20 48.10839 2.75853 26531 ft 479 kts 154°
2026-04-26 02:20 48.07852 2.78117 26938 ft 482 kts 155°
2026-04-26 02:21 48.04800 2.80229 27339 ft 485 kts 157°
2026-04-26 02:21 48.01685 2.82203 27744 ft 488 kts 158°
2026-04-26 02:21 47.98537 2.84133 28132 ft 491 kts 159°
2026-04-26 02:21 47.95370 2.86073 28563 ft 492 kts 158°
2026-04-26 02:22 47.92211 2.88028 28970 ft 493 kts 158°
2026-04-26 02:22 47.89033 2.90019 29316 ft 496 kts 158°
2026-04-26 02:22 47.85850 2.92028 29617 ft 499 kts 158°
2026-04-26 02:22 47.82639 2.94061 29914 ft 502 kts 158°
2026-04-26 02:23 47.79425 2.96097 30345 ft 500 kts 159°
2026-04-26 02:23 47.76255 2.98104 31000 ft 492 kts 159°
2026-04-26 02:23 47.73126 3.00081 31524 ft 488 kts 159°
2026-04-26 02:23 47.70033 3.02028 31809 ft 489 kts 159°
2026-04-26 02:24 47.66890 3.04004 32020 ft 491 kts 159°
2026-04-26 02:24 47.63738 3.05983 32284 ft 492 kts 159°
2026-04-26 02:24 47.60594 3.07959 32611 ft 491 kts 159°
2026-04-26 02:24 47.57448 3.09932 32929 ft 490 kts 159°
2026-04-26 02:25 47.54298 3.11901 33127 ft 492 kts 159°
2026-04-26 02:25 47.47963 3.15839 33191 ft 493 kts 159°
2026-04-26 02:26 47.41676 3.19734 33189 ft 487 kts 159°
2026-04-26 02:26 47.35426 3.23605 33193 ft 487 kts 159°
2026-04-26 02:27 47.29182 3.27468 33188 ft 486 kts 159°
2026-04-26 02:27 47.22948 3.31316 33183 ft 485 kts 160°
2026-04-26 02:28 47.16729 3.35143 33183 ft 484 kts 160°
2026-04-26 02:28 47.10524 3.38953 33185 ft 482 kts 160°
2026-04-26 02:29 47.04337 3.42742 33187 ft 481 kts 160°
2026-04-26 02:29 46.98166 3.46512 33186 ft 480 kts 160°
2026-04-26 02:30 46.92038 3.50248 33188 ft 480 kts 160°
2026-04-26 02:30 46.85873 3.53999 33179 ft 480 kts 160°
2026-04-26 02:31 46.79711 3.57743 33188 ft 479 kts 160°
2026-04-26 02:31 46.73676 3.61805 33167 ft 479 kts 146°
2026-04-26 02:31 46.71269 3.65168 33187 ft 484 kts 129°
2026-04-26 02:32 46.69561 3.69410 33186 ft 489 kts 113°
2026-04-26 02:32 46.67906 3.79072 33177 ft 495 kts 104°
2026-04-26 02:33 46.66319 3.88854 33193 ft 498 kts 105°
2026-04-26 02:33 46.64611 3.98652 33195 ft 500 kts 106°
2026-04-26 02:34 46.62906 4.08423 33177 ft 501 kts 106°
2026-04-26 02:34 46.61196 4.18232 33183 ft 499 kts 106°
2026-04-26 02:35 46.59486 4.28016 33182 ft 498 kts 106°
2026-04-26 02:35 46.57774 4.37752 33182 ft 497 kts 106°
2026-04-26 02:36 46.56054 4.47474 33175 ft 496 kts 106°
2026-04-26 02:36 46.54330 4.57170 33173 ft 496 kts 106°
2026-04-26 02:37 46.52595 4.66873 33180 ft 496 kts 106°
2026-04-26 02:37 46.50852 4.76574 33170 ft 497 kts 106°
2026-04-26 02:38 46.49099 4.86285 33164 ft 498 kts 107°
2026-04-26 02:38 46.47336 4.96004 33173 ft 499 kts 107°
2026-04-26 02:39 46.45572 5.05695 33159 ft 500 kts 107°
2026-04-26 02:39 46.43775 5.15441 33171 ft 501 kts 107°
2026-04-26 02:40 46.41956 5.25204 33163 ft 502 kts 107°
2026-04-26 02:40 46.40110 5.35011 33180 ft 502 kts 109°
2026-04-26 02:41 46.37261 5.44091 33182 ft 498 kts 124°
2026-04-26 02:41 46.33085 5.52013 33186 ft 494 kts 134°
2026-04-26 02:42 46.28559 5.59488 33177 ft 494 kts 134°
2026-04-26 02:42 46.24045 5.67017 33180 ft 495 kts 133°
2026-04-26 02:43 46.17301 5.78367 33168 ft 497 kts 133°
2026-04-26 02:43 46.12796 5.85938 33171 ft 497 kts 133°
2026-04-26 02:44 46.08284 5.93497 33140 ft 497 kts 133°
2026-04-26 02:44 46.03767 6.01035 33166 ft 497 kts 133°
2026-04-26 02:45 45.99236 6.08578 33153 ft 498 kts 132°
2026-04-26 02:45 45.94708 6.16101 33160 ft 498 kts 132°
2026-04-26 02:46 45.90192 6.23585 33157 ft 499 kts 132°
2026-04-26 02:46 45.85644 6.31110 33160 ft 499 kts 132°
2026-04-26 02:47 45.80970 6.38466 33154 ft 499 kts 138°
2026-04-26 02:47 45.75540 6.44607 33158 ft 497 kts 147°
2026-04-26 02:48 45.69847 6.50260 33154 ft 498 kts 147°
2026-04-26 02:48 45.64181 6.55956 33148 ft 498 kts 146°
2026-04-26 02:49 45.58528 6.61682 33156 ft 498 kts 146°
2026-04-26 02:49 45.52878 6.67399 33152 ft 497 kts 146°
2026-04-26 02:50 45.47226 6.73101 33144 ft 498 kts 146°
2026-04-26 02:50 45.41609 6.78752 33150 ft 497 kts 146°
2026-04-26 02:51 45.35957 6.84426 33139 ft 497 kts 146°
2026-04-26 02:51 45.30305 6.90088 33136 ft 497 kts 146°
2026-04-26 02:52 45.24804 6.96019 33142 ft 497 kts 138°
2026-04-26 02:52 45.19898 7.02904 33176 ft 496 kts 136°
2026-04-26 02:53 45.14989 7.09760 33181 ft 495 kts 137°
2026-04-26 02:53 45.10171 7.16706 33199 ft 494 kts 131°
2026-04-26 02:54 45.06163 7.24592 33209 ft 494 kts 125°
2026-04-26 02:54 45.02276 7.32592 33210 ft 493 kts 126°
2026-04-26 02:55 44.98317 7.40525 33075 ft 494 kts 127°
2026-04-26 02:55 44.94660 7.46699 33068 ft 494 kts 132°
2026-04-26 02:56 44.90105 7.53959 33079 ft 494 kts 132°
2026-04-26 02:56 44.85551 7.61247 33082 ft 495 kts 132°
2026-04-26 02:57 44.81014 7.68550 33079 ft 495 kts 132°
2026-04-26 02:57 44.76480 7.75853 33077 ft 495 kts 132°
2026-04-26 02:58 44.71942 7.83143 33079 ft 495 kts 132°
2026-04-26 02:58 44.67398 7.90418 33076 ft 495 kts 132°
2026-04-26 02:59 44.62881 7.97631 33080 ft 495 kts 132°
2026-04-26 02:59 44.58333 8.04875 33084 ft 494 kts 132°
2026-04-26 03:00 44.53784 8.12103 33084 ft 494 kts 132°
2026-04-26 03:00 44.49243 8.19299 33089 ft 493 kts 132°
2026-04-26 03:01 44.44690 8.26495 33097 ft 493 kts 132°
2026-04-26 03:01 44.40144 8.33662 33103 ft 493 kts 132°
2026-04-26 03:02 44.35590 8.40825 33110 ft 493 kts 133°
2026-04-26 03:02 44.31033 8.47973 33106 ft 492 kts 133°
2026-04-26 03:03 44.26470 8.55113 33111 ft 492 kts 133°
2026-04-26 03:03 44.21913 8.62225 33110 ft 491 kts 133°
2026-04-26 03:04 44.17355 8.69321 33117 ft 491 kts 133°
2026-04-26 03:04 44.12820 8.76363 33116 ft 491 kts 133°
2026-04-26 03:05 44.08260 8.83427 33120 ft 491 kts 133°
2026-04-26 03:05 44.03691 8.90488 33120 ft 491 kts 133°
2026-04-26 03:06 43.99114 8.97542 33127 ft 491 kts 133°
2026-04-26 03:06 43.94533 9.04587 33124 ft 492 kts 133°
2026-04-26 03:07 43.89939 9.11633 33125 ft 492 kts 133°
2026-04-26 03:07 43.85341 9.18667 33127 ft 492 kts 133°
2026-04-26 03:08 43.80734 9.25699 33132 ft 493 kts 133°
2026-04-26 03:08 43.76150 9.32678 33131 ft 493 kts 133°
2026-04-26 03:09 43.71529 9.39696 33130 ft 493 kts 133°
2026-04-26 03:09 43.66904 9.46704 33130 ft 493 kts 133°
2026-04-26 03:10 43.62273 9.53704 33123 ft 494 kts 133°
2026-04-26 03:10 43.57636 9.60696 33131 ft 494 kts 133°
2026-04-26 03:11 43.52995 9.67678 33131 ft 494 kts 133°
2026-04-26 03:11 43.48348 9.74655 33131 ft 494 kts 133°
2026-04-26 03:12 43.43699 9.81622 33130 ft 494 kts 133°
2026-04-26 03:12 43.39044 9.88578 33131 ft 494 kts 133°
2026-04-26 03:13 43.34181 9.95266 33132 ft 494 kts 137°
2026-04-26 03:13 43.29203 10.01685 33132 ft 494 kts 137°
2026-04-26 03:14 43.24189 10.08147 33134 ft 495 kts 137°
2026-04-26 03:14 43.19185 10.14627 33134 ft 495 kts 137°
2026-04-26 03:15 43.14185 10.21110 33131 ft 495 kts 137°
2026-04-26 03:15 43.09182 10.27584 33134 ft 495 kts 137°
2026-04-26 03:16 43.04174 10.34047 33131 ft 495 kts 137°
2026-04-26 03:16 42.99165 10.40494 33131 ft 495 kts 137°
2026-04-26 03:17 42.94141 10.46944 33134 ft 495 kts 137°
2026-04-26 03:17 42.89127 10.53368 33133 ft 495 kts 137°
2026-04-26 03:18 42.84100 10.59793 33129 ft 495 kts 137°
2026-04-26 03:18 42.79075 10.66200 33126 ft 495 kts 137°
2026-04-26 03:19 42.74046 10.72597 33123 ft 495 kts 137°
2026-04-26 03:19 42.69014 10.78983 33118 ft 494 kts 137°
2026-04-26 03:20 42.63977 10.85361 33111 ft 494 kts 137°
2026-04-26 03:20 42.58946 10.91717 33117 ft 494 kts 137°
2026-04-26 03:21 42.53914 10.98058 33116 ft 494 kts 137°
2026-04-26 03:21 42.48915 11.04345 33128 ft 493 kts 137°
2026-04-26 03:22 42.43881 11.10660 33129 ft 493 kts 137°
2026-04-26 03:22 42.38845 11.16964 33132 ft 493 kts 137°
2026-04-26 03:23 42.33800 11.23263 33131 ft 493 kts 137°
2026-04-26 03:23 42.28755 11.29550 33129 ft 493 kts 137°
2026-04-26 03:24 42.23711 11.35820 33129 ft 493 kts 137°
2026-04-26 03:24 42.18660 11.42085 33121 ft 493 kts 137°
2026-04-26 03:25 42.13604 11.48342 33121 ft 493 kts 137°
2026-04-26 03:25 42.08542 11.54591 33119 ft 494 kts 137°
2026-04-26 03:26 42.03475 11.60834 33118 ft 494 kts 137°
2026-04-26 03:26 41.98411 11.67059 33122 ft 493 kts 137°
2026-04-26 03:27 41.93336 11.73283 33137 ft 493 kts 137°
2026-04-26 03:27 41.88266 11.79486 33148 ft 493 kts 137°
2026-04-26 03:28 41.83231 11.85633 33156 ft 492 kts 137°
2026-04-26 03:28 41.78164 11.91806 33156 ft 492 kts 137°
2026-04-26 03:29 41.73097 11.97965 33155 ft 491 kts 137°
2026-04-26 03:29 41.68041 12.04097 33139 ft 490 kts 137°
2026-04-26 03:30 41.62980 12.10221 33123 ft 490 kts 138°
2026-04-26 03:30 41.57923 12.16327 33108 ft 490 kts 138°
2026-04-26 03:31 41.52887 12.22394 33099 ft 491 kts 138°
2026-04-26 03:31 41.47811 12.28496 33105 ft 491 kts 138°
2026-04-26 03:32 41.42732 12.34590 33117 ft 491 kts 138°
2026-04-26 03:32 41.37637 12.40687 33105 ft 491 kts 138°
2026-04-26 03:33 41.32552 12.46761 33112 ft 492 kts 138°
2026-04-26 03:33 41.27480 12.52805 33113 ft 492 kts 138°
2026-04-26 03:34 41.22379 12.58871 33120 ft 492 kts 138°
2026-04-26 03:34 41.17281 12.64922 33111 ft 491 kts 138°
2026-04-26 03:35 41.12187 12.70954 33117 ft 490 kts 138°
2026-04-26 03:35 41.07101 12.76965 33116 ft 489 kts 138°
2026-04-26 03:36 41.02018 12.82963 33120 ft 489 kts 139°
2026-04-26 03:36 40.96933 12.88954 33118 ft 489 kts 139°
2026-04-26 03:37 40.91847 12.94932 33116 ft 489 kts 138°
2026-04-26 03:37 40.87142 13.01412 33121 ft 488 kts 133°
2026-04-26 03:38 40.82616 13.08030 33121 ft 489 kts 133°
2026-04-26 03:38 40.78046 13.14680 33115 ft 489 kts 133°
2026-04-26 03:39 40.73462 13.21303 33123 ft 489 kts 133°
2026-04-26 03:39 40.68867 13.27914 33117 ft 488 kts 133°
2026-04-26 03:40 40.64276 13.34504 33122 ft 488 kts 134°
2026-04-26 03:40 40.59682 13.41083 33122 ft 488 kts 134°
2026-04-26 03:41 40.55085 13.47654 33128 ft 488 kts 133°
2026-04-26 03:41 40.50487 13.54214 33121 ft 487 kts 134°
2026-04-26 03:42 40.46664 13.59656 33120 ft 487 kts 134°
2026-04-26 03:42 40.41317 13.67251 33120 ft 487 kts 134°
2026-04-26 03:43 40.37462 13.72715 33121 ft 487 kts 134°
2026-04-26 03:43 40.32860 13.79225 33121 ft 487 kts 134°
2026-04-26 03:44 40.28255 13.85726 33120 ft 487 kts 134°
2026-04-26 03:44 40.23647 13.92216 33123 ft 486 kts 134°
2026-04-26 03:45 40.19042 13.98688 33121 ft 486 kts 134°
2026-04-26 03:45 40.14424 14.05165 33118 ft 486 kts 134°
2026-04-26 03:46 40.09839 14.11582 33126 ft 486 kts 134°
2026-04-26 03:47 40.02908 14.21256 33127 ft 486 kts 134°
2026-04-26 03:47 39.98279 14.27700 33130 ft 486 kts 134°
2026-04-26 03:48 39.93655 14.34124 33128 ft 486 kts 134°
2026-04-26 03:48 39.89029 14.40535 33130 ft 485 kts 134°
2026-04-26 03:49 39.84403 14.46935 33126 ft 485 kts 134°
2026-04-26 03:49 39.79773 14.53327 33129 ft 485 kts 134°
2026-04-26 03:50 39.75166 14.59672 33128 ft 485 kts 134°
2026-04-26 03:50 39.70530 14.66045 33133 ft 485 kts 134°
2026-04-26 03:51 39.65889 14.72410 33132 ft 485 kts 135°
2026-04-26 03:51 39.61245 14.78768 33128 ft 485 kts 135°
2026-04-26 03:52 39.56597 14.85117 33126 ft 485 kts 135°
2026-04-26 03:52 39.51945 14.91459 33132 ft 485 kts 135°
2026-04-26 03:53 39.47289 14.97792 33127 ft 485 kts 135°
2026-04-26 03:53 39.42632 15.04114 33131 ft 485 kts 135°
2026-04-26 03:54 39.37974 15.10425 33134 ft 485 kts 135°
2026-04-26 03:54 39.33313 15.16726 33134 ft 485 kts 135°
2026-04-26 03:55 39.28639 15.23031 33143 ft 485 kts 135°
2026-04-26 03:55 39.23979 15.29306 33136 ft 485 kts 135°
2026-04-26 03:56 39.19337 15.35543 33137 ft 484 kts 135°
2026-04-26 03:56 39.14641 15.41840 33145 ft 484 kts 135°
2026-04-26 03:57 39.09967 15.48094 33151 ft 484 kts 135°
2026-04-26 03:57 39.05290 15.54340 33145 ft 484 kts 135°
2026-04-26 03:58 39.00640 15.60537 33147 ft 485 kts 135°
2026-04-26 03:58 38.95955 15.66767 33142 ft 485 kts 135°
2026-04-26 03:59 38.91268 15.72989 33146 ft 485 kts 135°
2026-04-26 03:59 38.86575 15.79205 33156 ft 485 kts 135°
2026-04-26 04:00 38.81873 15.85422 33151 ft 485 kts 135°
2026-04-26 04:00 38.77172 15.91625 33152 ft 485 kts 135°
2026-04-26 04:01 38.72466 15.97820 33145 ft 485 kts 135°
2026-04-26 04:01 38.67758 16.04007 33141 ft 485 kts 135°
2026-04-26 04:02 38.63053 16.10178 33152 ft 485 kts 135°
2026-04-26 04:02 38.58336 16.16351 33149 ft 484 kts 135°
2026-04-26 04:03 38.53623 16.22508 33136 ft 484 kts 135°
2026-04-26 04:03 38.48907 16.28655 33131 ft 484 kts 135°
2026-04-26 04:04 38.44195 16.34787 33135 ft 484 kts 135°
2026-04-26 04:04 38.39468 16.40924 33100 ft 484 kts 135°
2026-04-26 04:05 38.34775 16.47008 33099 ft 484 kts 135°
2026-04-26 04:05 38.30046 16.53125 33086 ft 485 kts 135°
2026-04-26 04:06 38.25313 16.59237 33083 ft 485 kts 135°
2026-04-26 04:06 38.20577 16.65343 33080 ft 485 kts 135°
2026-04-26 04:07 38.15832 16.71452 33070 ft 485 kts 135°
2026-04-26 04:07 38.11085 16.77550 33073 ft 486 kts 135°
2026-04-26 04:08 38.06348 16.83677 33073 ft 486 kts 134°
2026-04-26 04:08 38.01643 16.89849 33070 ft 487 kts 134°
2026-04-26 04:09 37.96963 16.95993 33092 ft 487 kts 134°
2026-04-26 04:09 37.92253 17.02154 33073 ft 487 kts 134°
2026-04-26 04:10 37.87531 17.08310 33076 ft 487 kts 134°
2026-04-26 04:10 37.82795 17.14472 33080 ft 488 kts 134°
2026-04-26 04:11 37.78059 17.20622 33080 ft 489 kts 134°
2026-04-26 04:11 37.73304 17.26786 33077 ft 489 kts 134°
2026-04-26 04:12 37.68544 17.32943 33071 ft 490 kts 134°
2026-04-26 04:12 37.63777 17.39098 33072 ft 490 kts 134°
2026-04-26 04:13 37.59009 17.45242 33080 ft 490 kts 134°
2026-04-26 04:13 37.54266 17.51342 33075 ft 490 kts 134°
2026-04-26 04:14 37.49489 17.57473 33078 ft 490 kts 134°
2026-04-26 04:14 37.44709 17.63598 33078 ft 490 kts 134°
2026-04-26 04:15 37.39935 17.69701 33074 ft 490 kts 134°
2026-04-26 04:15 37.35152 17.75804 33088 ft 490 kts 134°
2026-04-26 04:16 37.30365 17.81902 33080 ft 490 kts 134°
2026-04-26 04:16 37.25572 17.87995 33075 ft 490 kts 134°
2026-04-26 04:17 37.20776 17.94081 33086 ft 490 kts 134°
2026-04-26 04:17 37.15974 18.00162 33080 ft 491 kts 134°
2026-04-26 04:18 37.11169 18.06236 33081 ft 491 kts 134°
2026-04-26 04:18 37.06359 18.12303 33080 ft 491 kts 134°
2026-04-26 04:19 37.01547 18.18364 33082 ft 491 kts 134°
2026-04-26 04:19 36.96725 18.24424 33080 ft 491 kts 134°
2026-04-26 04:20 36.91938 18.30429 33080 ft 491 kts 134°
2026-04-26 04:20 36.87116 18.36467 33081 ft 491 kts 134°
2026-04-26 04:21 36.82294 18.42493 33088 ft 491 kts 134°
2026-04-26 04:21 36.77464 18.48519 33091 ft 491 kts 133°
2026-04-26 04:22 36.72626 18.54544 33084 ft 492 kts 133°
2026-04-26 04:22 36.67782 18.60567 33083 ft 492 kts 133°
2026-04-26 04:23 36.62926 18.66594 33085 ft 493 kts 133°
2026-04-26 04:23 36.58064 18.72622 33084 ft 494 kts 133°
2026-04-26 04:24 36.53195 18.78643 33103 ft 494 kts 133°
2026-04-26 04:24 36.48760 18.85122 33095 ft 491 kts 122°
2026-04-26 04:25 36.45240 18.92356 33088 ft 489 kts 118°
2026-04-26 04:25 36.41799 18.99650 33081 ft 489 kts 118°
2026-04-26 04:26 36.38328 19.06925 33079 ft 490 kts 118°
2026-04-26 04:26 36.34835 19.14196 33096 ft 491 kts 118°
2026-04-26 04:27 36.31328 19.21473 33084 ft 492 kts 118°
2026-04-26 04:27 36.27815 19.28749 33082 ft 492 kts 118°
2026-04-26 04:28 36.24302 19.36011 33079 ft 492 kts 118°
2026-04-26 04:28 36.21372 19.42058 33078 ft 491 kts 118°
2026-04-26 04:29 36.17854 19.49302 33087 ft 491 kts 118°
2026-04-26 04:29 36.14329 19.56548 33089 ft 490 kts 118°
2026-04-26 04:30 36.10809 19.63766 33084 ft 489 kts 118°
2026-04-26 04:30 36.07311 19.70927 33081 ft 489 kts 118°
2026-04-26 04:31 36.03792 19.78115 33061 ft 489 kts 118°
2026-04-26 04:31 36.00266 19.85308 33073 ft 490 kts 118°
2026-04-26 04:32 35.96731 19.92510 33071 ft 491 kts 118°
2026-04-26 04:32 35.93190 19.99715 33071 ft 491 kts 117°
2026-04-26 04:33 35.90014 20.07140 33072 ft 489 kts 114°
2026-04-26 04:33 35.86914 20.14613 33091 ft 490 kts 114°
2026-04-26 04:34 35.83804 20.22084 33069 ft 490 kts 114°
2026-04-26 04:34 35.80683 20.29539 33065 ft 489 kts 114°
2026-04-26 04:35 35.77557 20.36976 33062 ft 488 kts 114°
2026-04-26 04:35 35.74431 20.44397 33063 ft 488 kts 114°
2026-04-26 04:36 35.71321 20.51766 33069 ft 488 kts 114°
2026-04-26 04:36 35.68172 20.59210 33061 ft 488 kts 114°
2026-04-26 04:37 35.65056 20.66561 33055 ft 487 kts 114°
2026-04-26 04:37 35.61912 20.73960 33061 ft 489 kts 114°
2026-04-26 04:38 35.58754 20.81378 33087 ft 490 kts 114°
2026-04-26 04:38 35.55583 20.88809 33056 ft 491 kts 114°
2026-04-26 04:39 35.52404 20.96241 33051 ft 492 kts 114°
2026-04-26 04:39 35.49221 21.03664 33048 ft 491 kts 114°
2026-04-26 04:40 35.46037 21.11074 33046 ft 491 kts 114°
2026-04-26 04:40 35.42848 21.18481 33052 ft 490 kts 114°
2026-04-26 04:41 35.39662 21.25864 33047 ft 490 kts 114°
2026-04-26 04:41 35.36465 21.33255 33041 ft 490 kts 114°
2026-04-26 04:42 35.33273 21.40619 33033 ft 490 kts 114°
2026-04-26 04:42 35.30092 21.47944 33040 ft 490 kts 114°
2026-04-26 04:43 35.26887 21.55304 33040 ft 490 kts 114°
2026-04-26 04:43 35.23677 21.62662 33034 ft 490 kts 115°
2026-04-26 04:44 35.20458 21.70026 33043 ft 491 kts 115°
2026-04-26 04:44 35.17227 21.77400 33036 ft 492 kts 115°
2026-04-26 04:45 35.13986 21.84783 33031 ft 493 kts 115°
2026-04-26 04:45 35.10730 21.92180 33035 ft 494 kts 115°
2026-04-26 04:46 35.07467 21.99578 33032 ft 495 kts 115°
2026-04-26 04:46 35.04197 22.06976 33030 ft 495 kts 115°
2026-04-26 04:47 35.00922 22.14370 33052 ft 495 kts 115°
2026-04-26 04:47 34.97643 22.21756 33029 ft 496 kts 115°
2026-04-26 04:48 34.92709 22.32841 33018 ft 495 kts 115°
2026-04-26 04:48 34.89420 22.40211 33018 ft 495 kts 115°
2026-04-26 04:49 34.86128 22.47572 33037 ft 495 kts 116°
2026-04-26 04:49 34.82827 22.54939 33021 ft 496 kts 116°
2026-04-26 04:50 34.79511 22.62322 33016 ft 498 kts 116°
2026-04-26 04:50 34.76179 22.69726 33020 ft 500 kts 116°
2026-04-26 04:51 34.72833 22.77149 33007 ft 501 kts 116°
2026-04-26 04:51 34.69490 22.84550 32998 ft 503 kts 117°
2026-04-26 04:52 34.66114 22.92012 32989 ft 504 kts 116°
2026-04-26 04:52 34.62727 22.99481 33003 ft 505 kts 117°
2026-04-26 04:53 34.59435 23.07015 33005 ft 504 kts 115°
2026-04-26 04:53 34.56256 23.14599 33004 ft 504 kts 115°
2026-04-26 04:54 34.53072 23.22181 32989 ft 505 kts 115°
2026-04-26 04:54 34.49863 23.29752 32982 ft 505 kts 115°
2026-04-26 04:55 34.46638 23.37316 32975 ft 505 kts 115°
2026-04-26 04:55 34.43408 23.44875 32988 ft 506 kts 116°
2026-04-26 04:56 34.40166 23.52447 32974 ft 508 kts 115°
2026-04-26 04:56 34.36901 23.60060 32973 ft 510 kts 116°
2026-04-26 04:57 34.33620 23.67693 32967 ft 513 kts 116°
2026-04-26 04:57 34.30319 23.75357 32982 ft 514 kts 116°
2026-04-26 04:58 34.27030 23.82975 32971 ft 514 kts 116°
2026-04-26 04:58 34.23709 23.90646 32956 ft 514 kts 116°
2026-04-26 04:59 34.20390 23.98300 32959 ft 512 kts 116°
2026-04-26 04:59 34.17082 24.05912 32952 ft 511 kts 116°
2026-04-26 05:00 34.13773 24.13512 32952 ft 511 kts 117°
2026-04-26 05:00 34.10457 24.21111 32958 ft 512 kts 117°
2026-04-26 05:01 34.07158 24.28664 32952 ft 513 kts 117°
2026-04-26 05:01 34.03827 24.36272 32948 ft 513 kts 117°
2026-04-26 05:02 34.00149 24.43648 32949 ft 515 kts 127°
2026-04-26 05:02 33.95393 24.50114 32933 ft 516 kts 138°
2026-04-26 05:03 33.90014 24.55834 32939 ft 517 kts 140°
2026-04-26 05:03 33.84579 24.61559 32947 ft 520 kts 140°
2026-04-26 05:04 33.79154 24.67333 32943 ft 521 kts 140°
2026-04-26 05:04 33.73768 24.73098 32939 ft 522 kts 139°
2026-04-26 05:05 33.68343 24.78903 32938 ft 522 kts 139°
2026-04-26 05:05 33.62920 24.84692 32926 ft 521 kts 140°
2026-04-26 05:06 33.57490 24.90474 32936 ft 521 kts 140°
2026-04-26 05:06 33.52062 24.96243 32943 ft 522 kts 140°
2026-04-26 05:07 33.46627 25.02010 32943 ft 522 kts 141°
2026-04-26 05:07 33.41181 25.07779 32937 ft 523 kts 141°
2026-04-26 05:08 33.35723 25.13550 32941 ft 524 kts 141°
2026-04-26 05:08 33.30255 25.19322 32937 ft 525 kts 141°
2026-04-26 05:09 33.24776 25.25096 32938 ft 525 kts 141°
2026-04-26 05:09 33.19292 25.30864 32931 ft 525 kts 141°
2026-04-26 05:10 33.13809 25.36622 32942 ft 525 kts 141°
2026-04-26 05:10 33.08321 25.42375 32934 ft 525 kts 141°
2026-04-26 05:11 33.02830 25.48121 32934 ft 525 kts 141°
2026-04-26 05:11 32.97375 25.53820 32927 ft 525 kts 142°
2026-04-26 05:12 32.91876 25.59555 32938 ft 525 kts 142°
2026-04-26 05:12 32.86378 25.65278 32933 ft 525 kts 142°
2026-04-26 05:13 32.80876 25.70996 32937 ft 526 kts 142°
2026-04-26 05:13 32.76289 25.75756 32943 ft 527 kts 142°
2026-04-26 05:14 32.70763 25.81481 32941 ft 527 kts 142°
2026-04-26 05:14 32.65227 25.87206 32928 ft 528 kts 143°
2026-04-26 05:15 32.59683 25.92932 32939 ft 529 kts 143°
2026-04-26 05:15 32.54128 25.98658 32945 ft 529 kts 144°
2026-04-26 05:16 32.48562 26.04385 32941 ft 530 kts 144°
2026-04-26 05:16 32.42982 26.10117 32944 ft 531 kts 144°
2026-04-26 05:17 32.37404 26.15839 32927 ft 530 kts 144°
2026-04-26 05:17 32.31831 26.21546 32930 ft 530 kts 144°
2026-04-26 05:18 32.26299 26.27199 32942 ft 529 kts 145°
2026-04-26 05:18 32.20735 26.32876 32950 ft 528 kts 145°
2026-04-26 05:19 32.15174 26.38541 32952 ft 528 kts 145°
2026-04-26 05:19 32.09612 26.44197 32955 ft 528 kts 145°
2026-04-26 05:20 32.04048 26.49845 32951 ft 527 kts 145°
2026-04-26 05:20 31.98483 26.55487 32961 ft 528 kts 145°
2026-04-26 05:21 31.92908 26.61128 32958 ft 529 kts 146°
2026-04-26 05:21 31.87322 26.66770 32971 ft 530 kts 146°
2026-04-26 05:22 31.81717 26.72423 32965 ft 530 kts 146°
2026-04-26 05:22 31.76110 26.78070 32965 ft 531 kts 146°
2026-04-26 05:23 31.70533 26.83676 32966 ft 531 kts 146°
2026-04-26 05:23 31.64918 26.89314 32965 ft 531 kts 146°
2026-04-26 05:24 31.59303 26.94941 32974 ft 532 kts 146°
2026-04-26 05:24 31.53676 27.00572 32972 ft 532 kts 147°
2026-04-26 05:25 31.48039 27.06205 32978 ft 532 kts 147°
2026-04-26 05:25 31.42409 27.11826 32937 ft 532 kts 147°
2026-04-26 05:26 31.36780 27.17437 32971 ft 532 kts 147°
2026-04-26 05:26 31.30907 27.22566 32967 ft 521 kts 157°
2026-04-26 05:27 31.24529 27.26362 32971 ft 511 kts 165°
2026-04-26 05:27 31.18033 27.29786 32975 ft 513 kts 164°
2026-04-26 05:28 31.11544 27.33287 32944 ft 514 kts 164°
2026-04-26 05:28 31.05096 27.36798 32980 ft 515 kts 164°
2026-04-26 05:29 30.98605 27.40322 33004 ft 515 kts 164°
2026-04-26 05:29 30.92211 27.44267 32999 ft 526 kts 156°
2026-04-26 05:30 30.86319 27.49492 33000 ft 535 kts 149°
2026-04-26 05:30 30.80550 27.54944 32993 ft 533 kts 149°
2026-04-26 05:31 30.74774 27.60345 33004 ft 532 kts 150°
2026-04-26 05:31 30.68980 27.65707 33013 ft 532 kts 150°
2026-04-26 05:32 30.63177 27.71057 33018 ft 533 kts 150°
2026-04-26 05:32 30.57370 27.76405 33021 ft 533 kts 150°
2026-04-26 05:33 30.51560 27.81751 32986 ft 533 kts 150°
2026-04-26 05:33 30.45748 27.87093 33021 ft 534 kts 150°
2026-04-26 05:34 30.39916 27.92443 33021 ft 534 kts 150°
2026-04-26 05:34 30.34088 27.97782 33025 ft 535 kts 150°
2026-04-26 05:35 30.28250 28.03122 33025 ft 535 kts 150°
2026-04-26 05:35 30.22407 28.08459 33009 ft 535 kts 151°
2026-04-26 05:36 30.16559 28.13793 33021 ft 535 kts 151°
2026-04-26 05:36 30.10759 28.19074 33029 ft 534 kts 151°
2026-04-26 05:37 30.04916 28.24388 33034 ft 534 kts 151°
2026-04-26 05:37 29.99079 28.29689 33033 ft 534 kts 151°
2026-04-26 05:38 29.93245 28.34986 33037 ft 533 kts 151°
2026-04-26 05:38 29.87497 28.40414 32998 ft 540 kts 146°
2026-04-26 05:39 29.82419 28.46920 33033 ft 552 kts 135°
2026-04-26 05:39 29.77798 28.54005 33042 ft 553 kts 135°
2026-04-26 05:40 29.73178 28.61001 33033 ft 552 kts 135°
2026-04-26 05:40 29.68487 28.67998 33011 ft 552 kts 136°
2026-04-26 05:41 29.63791 28.74985 33027 ft 552 kts 136°
2026-04-26 05:41 29.59085 28.81967 33025 ft 552 kts 136°
2026-04-26 05:42 29.54384 28.88942 33031 ft 552 kts 136°
2026-04-26 05:42 29.49679 28.95926 32967 ft 552 kts 136°
2026-04-26 05:43 29.44973 29.02895 33024 ft 551 kts 137°
2026-04-26 05:43 29.39854 29.09215 33035 ft 538 kts 147°
2026-04-26 05:44 29.34023 29.14426 33017 ft 530 kts 154°
2026-04-26 05:44 29.28087 29.19440 33040 ft 532 kts 153°
2026-04-26 05:45 29.22161 29.24546 33044 ft 534 kts 153°
2026-04-26 05:45 29.16235 29.29682 33007 ft 535 kts 153°
2026-04-26 05:46 29.10285 29.34791 33038 ft 533 kts 154°
2026-04-26 05:46 29.04284 29.39776 33043 ft 533 kts 155°
2026-04-26 05:47 28.98262 29.44734 33050 ft 534 kts 155°
2026-04-26 05:47 28.92244 29.49709 33049 ft 534 kts 154°
2026-04-26 05:48 28.86233 29.54693 33035 ft 534 kts 154°
2026-04-26 05:48 28.80223 29.59671 33063 ft 534 kts 155°
2026-04-26 05:49 28.71222 29.67107 33060 ft 536 kts 155°
2026-04-26 05:50 28.65166 29.72100 33063 ft 537 kts 155°
2026-04-26 05:50 28.59108 29.77091 33067 ft 538 kts 155°
2026-04-26 05:51 28.53046 29.82077 33022 ft 538 kts 155°
2026-04-26 05:51 28.46973 29.87064 33066 ft 538 kts 155°
2026-04-26 05:52 28.40928 29.92017 33067 ft 540 kts 155°
2026-04-26 05:52 28.34823 29.97015 33071 ft 542 kts 155°
2026-04-26 05:53 28.28703 30.02020 33071 ft 543 kts 155°
2026-04-26 05:53 28.22569 30.07030 33070 ft 543 kts 155°
2026-04-26 05:54 28.16455 30.12017 33047 ft 541 kts 155°
2026-04-26 05:54 28.10352 30.16987 33068 ft 540 kts 155°
2026-04-26 05:55 28.04250 30.21945 33066 ft 540 kts 155°
2026-04-26 05:55 27.98142 30.26902 33074 ft 539 kts 155°
2026-04-26 05:56 27.92041 30.31847 33067 ft 539 kts 155°
2026-04-26 05:56 27.85941 30.36785 33067 ft 538 kts 156°
2026-04-26 05:57 27.79849 30.41711 33054 ft 538 kts 155°
2026-04-26 05:57 27.73799 30.46595 33066 ft 537 kts 155°
2026-04-26 05:58 27.67717 30.51497 33074 ft 537 kts 156°
2026-04-26 05:58 27.61635 30.56391 33079 ft 537 kts 156°
2026-04-26 05:59 27.55556 30.61279 33045 ft 536 kts 156°
2026-04-26 05:59 27.49488 30.66151 33068 ft 536 kts 156°
2026-04-26 06:00 27.43414 30.71019 33082 ft 536 kts 156°
2026-04-26 06:00 27.37338 30.75884 33089 ft 536 kts 156°
2026-04-26 06:01 27.31260 30.80745 33092 ft 536 kts 156°
2026-04-26 06:01 27.26203 30.84784 33094 ft 536 kts 156°
2026-04-26 06:02 27.20124 30.89636 33086 ft 535 kts 156°
2026-04-26 06:02 27.14044 30.94484 33095 ft 536 kts 156°
2026-04-26 06:03 27.07960 30.99328 33093 ft 536 kts 156°
2026-04-26 06:03 27.02134 31.04711 33102 ft 551 kts 146°
2026-04-26 06:04 26.97041 31.11281 33116 ft 562 kts 138°
2026-04-26 06:04 26.92167 31.18131 33093 ft 562 kts 138°
2026-04-26 06:05 26.87274 31.24954 33057 ft 560 kts 138°
2026-04-26 06:05 26.82398 31.31667 33059 ft 559 kts 139°
2026-04-26 06:06 26.77484 31.38396 33069 ft 558 kts 139°
2026-04-26 06:06 26.72538 31.45162 33049 ft 558 kts 139°
2026-04-26 06:07 26.67656 31.51837 33049 ft 558 kts 139°
2026-04-26 06:07 26.62739 31.58552 33022 ft 558 kts 139°
2026-04-26 06:08 26.57819 31.65262 32985 ft 558 kts 139°
2026-04-26 06:08 26.52894 31.71967 32969 ft 558 kts 139°
2026-04-26 06:09 26.47965 31.78669 32944 ft 557 kts 139°
2026-04-26 06:09 26.43049 31.85342 32958 ft 557 kts 139°
2026-04-26 06:10 26.38117 31.92025 33000 ft 557 kts 139°
2026-04-26 06:10 26.33188 31.98695 32989 ft 557 kts 139°
2026-04-26 06:11 26.28251 32.05369 32985 ft 557 kts 139°
2026-04-26 06:11 26.23317 32.12030 32980 ft 557 kts 139°
2026-04-26 06:12 26.18383 32.18678 32979 ft 558 kts 139°
2026-04-26 06:12 26.13467 32.25291 32974 ft 558 kts 139°
2026-04-26 06:13 26.08519 32.31942 32953 ft 557 kts 139°
2026-04-26 06:13 26.03571 32.38580 32957 ft 558 kts 139°
2026-04-26 06:14 25.98614 32.45222 32955 ft 559 kts 139°
2026-04-26 06:14 25.93645 32.51871 32940 ft 560 kts 139°
2026-04-26 06:15 25.88667 32.58524 32938 ft 560 kts 138°
2026-04-26 06:15 25.83681 32.65183 32935 ft 560 kts 139°
2026-04-26 06:16 25.78697 32.71833 32939 ft 560 kts 139°
2026-04-26 06:16 25.73796 32.78573 32937 ft 567 kts 133°
2026-04-26 06:17 25.69439 32.85847 32900 ft 570 kts 131°
2026-04-26 06:17 25.65119 32.93220 32913 ft 570 kts 131°
2026-04-26 06:18 25.60764 33.00564 32931 ft 570 kts 131°
2026-04-26 06:18 25.56366 33.07909 32907 ft 571 kts 131°
2026-04-26 06:19 25.51980 33.15229 32920 ft 570 kts 131°
2026-04-26 06:19 25.47602 33.22523 32917 ft 568 kts 131°
2026-04-26 06:20 25.43227 33.29804 32925 ft 568 kts 131°
2026-04-26 06:20 25.38852 33.37078 32919 ft 568 kts 131°
2026-04-26 06:21 25.34477 33.44348 32919 ft 568 kts 131°
2026-04-26 06:21 25.30091 33.51613 32926 ft 568 kts 131°
2026-04-26 06:22 25.25686 33.58864 32909 ft 568 kts 131°
2026-04-26 06:22 25.21287 33.66104 32922 ft 567 kts 131°
2026-04-26 06:23 25.16915 33.73300 32919 ft 567 kts 131°
2026-04-26 06:23 25.12522 33.80524 32925 ft 566 kts 131°
2026-04-26 06:24 25.08135 33.87730 32917 ft 566 kts 131°
2026-04-26 06:24 25.03744 33.94931 32923 ft 565 kts 131°
2026-04-26 06:25 24.99359 34.02111 32937 ft 564 kts 131°
2026-04-26 06:25 24.94970 34.09270 32941 ft 563 kts 131°
2026-04-26 06:26 24.90582 34.16447 32947 ft 565 kts 131°
2026-04-26 06:26 24.86182 34.23622 32942 ft 566 kts 131°
2026-04-26 06:27 24.81767 34.30804 32933 ft 567 kts 131°
2026-04-26 06:27 24.77343 34.37991 32955 ft 567 kts 131°
2026-04-26 06:28 24.72912 34.45180 32962 ft 568 kts 131°
2026-04-26 06:28 24.68505 34.52323 32958 ft 568 kts 131°
2026-04-26 06:29 24.64068 34.59502 32965 ft 567 kts 131°
2026-04-26 06:29 24.59631 34.66671 32984 ft 567 kts 131°
2026-04-26 06:30 24.55191 34.73833 32945 ft 567 kts 131°
2026-04-26 06:30 24.50752 34.80983 32975 ft 566 kts 131°
2026-04-26 06:31 24.46310 34.88127 32969 ft 566 kts 131°
2026-04-26 06:31 24.41850 34.95283 32971 ft 569 kts 131°
2026-04-26 06:32 24.37391 35.02439 32935 ft 568 kts 131°
2026-04-26 06:32 24.32944 35.09568 32965 ft 565 kts 131°
2026-04-26 06:33 24.28529 35.16628 32965 ft 564 kts 131°
2026-04-26 06:33 24.24070 35.23747 32967 ft 563 kts 131°
2026-04-26 06:34 24.19664 35.30773 32956 ft 562 kts 131°
2026-04-26 06:34 24.15233 35.37829 32960 ft 562 kts 131°
2026-04-26 06:35 24.10798 35.44884 32958 ft 563 kts 131°
2026-04-26 06:35 24.06354 35.51944 32948 ft 563 kts 131°
2026-04-26 06:36 24.01913 35.58996 32959 ft 563 kts 131°
2026-04-26 06:36 23.97468 35.66044 32958 ft 563 kts 131°
2026-04-26 06:37 23.93033 35.73040 32943 ft 563 kts 132°
2026-04-26 06:37 23.88551 35.80098 32956 ft 561 kts 131°
2026-04-26 06:38 23.84138 35.87055 32955 ft 560 kts 131°
2026-04-26 06:38 23.79704 35.94041 32955 ft 559 kts 131°
2026-04-26 06:39 23.75268 36.01019 32955 ft 558 kts 131°
2026-04-26 06:39 23.70836 36.07982 32956 ft 558 kts 131°
2026-04-26 06:40 23.66402 36.14936 32954 ft 558 kts 132°
2026-04-26 06:40 23.61959 36.21896 32958 ft 558 kts 132°
2026-04-26 06:41 23.57514 36.28850 32945 ft 558 kts 131°
2026-04-26 06:41 23.53078 36.35782 32953 ft 558 kts 131°
2026-04-26 06:42 23.48665 36.42668 32958 ft 558 kts 132°
2026-04-26 06:42 23.44227 36.49586 32953 ft 556 kts 131°
2026-04-26 06:43 23.39793 36.56483 32949 ft 555 kts 131°
2026-04-26 06:43 23.35361 36.63370 32950 ft 554 kts 131°
2026-04-26 06:44 23.30935 36.70237 32950 ft 554 kts 131°
2026-04-26 06:44 23.26513 36.77092 32943 ft 554 kts 131°
2026-04-26 06:45 23.22087 36.83944 32949 ft 554 kts 131°
2026-04-26 06:45 23.17656 36.90795 32948 ft 554 kts 131°
2026-04-26 06:46 23.13221 36.97643 32949 ft 554 kts 131°
2026-04-26 06:46 23.08784 37.04491 32943 ft 554 kts 131°
2026-04-26 06:47 23.04350 37.11330 32944 ft 554 kts 131°
2026-04-26 06:47 22.99895 37.18161 32933 ft 554 kts 131°
2026-04-26 06:48 22.95438 37.24920 32927 ft 553 kts 131°
2026-04-26 06:48 22.90962 37.31710 32941 ft 553 kts 131°
2026-04-26 06:49 22.86494 37.38499 32942 ft 553 kts 131°
2026-04-26 06:49 22.82027 37.45284 32939 ft 553 kts 131°
2026-04-26 06:50 22.77566 37.52055 32932 ft 552 kts 131°
2026-04-26 06:50 22.73822 37.57726 32937 ft 552 kts 131°
2026-04-26 06:51 22.69403 37.64459 32939 ft 552 kts 131°
2026-04-26 06:51 22.62731 37.74618 32929 ft 552 kts 131°
2026-04-26 06:52 22.58295 37.81378 32940 ft 551 kts 131°
2026-04-26 06:52 22.53851 37.88146 32936 ft 551 kts 131°
2026-04-26 06:53 22.49408 37.94901 32936 ft 551 kts 131°
2026-04-26 06:53 22.44960 38.01657 32933 ft 551 kts 131°
2026-04-26 06:54 22.40514 38.08401 32935 ft 551 kts 131°
2026-04-26 06:54 22.36067 38.15143 32931 ft 551 kts 131°
2026-04-26 06:55 22.31613 38.21892 32935 ft 550 kts 131°
2026-04-26 06:55 22.27184 38.28575 32916 ft 550 kts 131°
2026-04-26 06:56 22.22720 38.35272 32919 ft 549 kts 131°
2026-04-26 06:56 22.18265 38.41959 32934 ft 549 kts 131°
2026-04-26 06:57 22.13814 38.48647 32925 ft 548 kts 131°
2026-04-26 06:57 22.09367 38.55322 32929 ft 548 kts 131°
2026-04-26 06:58 22.04920 38.61988 32920 ft 547 kts 131°
2026-04-26 06:58 22.00473 38.68645 32919 ft 547 kts 131°
2026-04-26 06:59 21.96026 38.75293 32926 ft 546 kts 131°
2026-04-26 06:59 21.91581 38.81933 32926 ft 546 kts 131°
2026-04-26 07:00 21.87132 38.88571 32927 ft 546 kts 131°
2026-04-26 07:00 21.82682 38.95205 32921 ft 546 kts 131°
2026-04-26 07:01 21.78237 39.01832 32919 ft 547 kts 131°
2026-04-26 07:01 21.73547 39.08209 32898 ft 535 kts 146°
2026-04-26 07:02 21.70507 39.10384 32904 ft 518 kts 162°
2026-04-26 07:02 21.67172 39.11695 32915 ft 505 kts 173°
2026-04-26 07:02 21.63746 39.12279 32913 ft 493 kts 186°
2026-04-26 07:02 21.60366 39.12185 32925 ft 484 kts 190°
2026-04-26 07:03 21.53600 39.11878 32917 ft 490 kts 189°
2026-04-26 07:03 21.46748 39.11649 32916 ft 494 kts 189°
2026-04-26 07:04 21.39861 39.11474 32914 ft 496 kts 188°
2026-04-26 07:04 21.33011 39.11312 32922 ft 495 kts 188°
2026-04-26 07:05 21.26084 39.11145 32918 ft 494 kts 188°
2026-04-26 07:05 21.19268 39.10976 32912 ft 492 kts 188°
2026-04-26 07:06 21.12424 39.10807 32927 ft 491 kts 188°
2026-04-26 07:06 21.05589 39.10637 32929 ft 491 kts 188°
2026-04-26 07:07 20.98753 39.10468 32929 ft 491 kts 188°
2026-04-26 07:07 20.91916 39.10300 32915 ft 492 kts 188°
2026-04-26 07:08 20.85062 39.10133 32930 ft 493 kts 188°
2026-04-26 07:08 20.78177 39.09968 32932 ft 495 kts 188°
2026-04-26 07:09 20.71282 39.09800 32927 ft 496 kts 188°
2026-04-26 07:09 20.64378 39.09619 32921 ft 496 kts 188°
2026-04-26 07:11 20.47110 39.09166 32921 ft 496 kts 187°
2026-04-26 07:11 20.40198 39.08991 32926 ft 496 kts 187°
2026-04-26 07:12 20.33342 39.08817 32936 ft 496 kts 187°
2026-04-26 07:12 20.26445 39.08642 32930 ft 496 kts 187°
2026-04-26 07:13 20.19551 39.08468 32928 ft 495 kts 187°
2026-04-26 07:13 20.12658 39.08293 32924 ft 495 kts 187°
2026-04-26 07:14 20.05761 39.08118 32937 ft 496 kts 187°
2026-04-26 07:14 19.98857 39.07944 32934 ft 496 kts 187°
2026-04-26 07:15 19.91943 39.07769 32933 ft 497 kts 187°
2026-04-26 07:15 19.85034 39.07595 32928 ft 497 kts 187°
2026-04-26 07:16 19.78115 39.07421 32932 ft 497 kts 187°
2026-04-26 07:16 19.71187 39.07247 32932 ft 498 kts 187°
2026-04-26 07:17 19.64257 39.07073 32931 ft 498 kts 187°
2026-04-26 07:17 19.57317 39.06899 32931 ft 498 kts 187°
2026-04-26 07:18 19.50386 39.06726 32928 ft 498 kts 187°
2026-04-26 07:18 19.43495 39.06554 32929 ft 498 kts 187°
2026-04-26 07:19 19.36567 39.06381 32918 ft 498 kts 186°
2026-04-26 07:19 19.29641 39.06210 32930 ft 498 kts 186°
2026-04-26 07:20 19.22712 39.06040 32925 ft 498 kts 186°
2026-04-26 07:20 19.15771 39.05871 32927 ft 498 kts 186°
2026-04-26 07:21 19.08833 39.05651 32922 ft 498 kts 188°
2026-04-26 07:21 19.01924 39.05241 32925 ft 497 kts 188°
2026-04-26 07:22 18.95015 39.04810 32925 ft 497 kts 188°
2026-04-26 07:22 18.88145 39.04412 32923 ft 498 kts 188°
2026-04-26 07:23 18.81226 39.04030 32922 ft 498 kts 188°
2026-04-26 07:23 18.74304 39.03649 32922 ft 498 kts 188°
2026-04-26 07:24 18.67378 39.03268 32923 ft 498 kts 188°
2026-04-26 07:24 18.60448 39.02885 32913 ft 499 kts 188°
2026-04-26 07:25 18.53513 39.02502 32921 ft 499 kts 187°
2026-04-26 07:25 18.46567 39.02120 32921 ft 499 kts 187°
2026-04-26 07:26 18.39622 39.01738 32920 ft 500 kts 187°
2026-04-26 07:26 18.32674 39.01357 32908 ft 500 kts 187°
2026-04-26 07:27 18.25768 39.00981 32916 ft 500 kts 187°
2026-04-26 07:27 18.18812 39.00603 32919 ft 501 kts 187°
2026-04-26 07:28 18.11846 39.00264 32915 ft 501 kts 186°
2026-04-26 07:28 18.04868 39.00018 32911 ft 502 kts 186°
2026-04-26 07:29 17.97869 38.99780 32915 ft 502 kts 186°
2026-04-26 07:29 17.90891 38.99532 32912 ft 502 kts 186°
2026-04-26 07:30 17.83895 38.99277 32913 ft 502 kts 186°
2026-04-26 07:30 17.76953 38.99024 32906 ft 503 kts 186°
2026-04-26 07:31 17.69960 38.98770 32916 ft 503 kts 186°
2026-04-26 07:31 17.62962 38.98518 32912 ft 503 kts 186°
2026-04-26 07:32 17.55952 38.98266 32913 ft 503 kts 186°
2026-04-26 07:32 17.48948 38.98017 32909 ft 504 kts 186°
2026-04-26 07:33 17.41934 38.97764 32909 ft 505 kts 186°
2026-04-26 07:33 17.34914 38.97499 32905 ft 505 kts 186°
2026-04-26 07:34 17.27888 38.97236 32910 ft 505 kts 186°
2026-04-26 07:34 17.20897 38.96980 32903 ft 506 kts 185°
2026-04-26 07:35 17.13868 38.96725 32914 ft 506 kts 185°
2026-04-26 07:35 17.06829 38.96471 32911 ft 506 kts 185°
2026-04-26 07:36 16.99789 38.96217 32913 ft 506 kts 185°
2026-04-26 07:36 16.92748 38.95963 32912 ft 506 kts 185°
2026-04-26 07:37 16.86855 38.95750 32913 ft 506 kts 185°
2026-04-26 07:37 16.79815 38.95496 32911 ft 506 kts 185°
2026-04-26 07:38 16.72777 38.95242 32913 ft 506 kts 185°
2026-04-26 07:38 16.65774 38.94989 32911 ft 506 kts 185°
2026-04-26 07:39 16.58729 38.94736 32919 ft 507 kts 185°
2026-04-26 07:39 16.51681 38.94482 32919 ft 507 kts 185°
2026-04-26 07:40 16.44633 38.94229 32916 ft 507 kts 185°
2026-04-26 07:40 16.37582 38.93976 32917 ft 507 kts 185°
2026-04-26 07:41 16.30531 38.93723 32932 ft 507 kts 185°
2026-04-26 07:41 16.23479 38.93470 32935 ft 507 kts 185°
2026-04-26 07:42 16.16425 38.93217 32938 ft 507 kts 185°
2026-04-26 07:42 16.09371 38.92964 32942 ft 507 kts 185°
2026-04-26 07:43 16.02314 38.92712 32951 ft 507 kts 185°
2026-04-26 07:43 15.95259 38.92460 32965 ft 507 kts 185°
2026-04-26 07:44 15.88213 38.92208 32959 ft 507 kts 185°
2026-04-26 07:44 15.81149 38.91956 32971 ft 508 kts 185°
2026-04-26 07:45 15.74078 38.91705 32981 ft 509 kts 185°
2026-04-26 07:45 15.66991 38.91454 32974 ft 509 kts 185°
2026-04-26 07:46 15.59916 38.91202 32997 ft 509 kts 184°
2026-04-26 07:46 15.52832 38.90951 33009 ft 509 kts 184°
2026-04-26 07:47 15.45786 38.90704 33006 ft 509 kts 184°
2026-04-26 07:47 15.38700 38.90458 33020 ft 509 kts 184°
2026-04-26 07:48 15.31616 38.90384 33012 ft 510 kts 176°
2026-04-26 07:48 15.24692 38.92081 33036 ft 515 kts 161°
2026-04-26 07:49 15.18266 38.95403 33032 ft 517 kts 153°
2026-04-26 07:49 15.11926 38.98939 33031 ft 518 kts 153°
2026-04-26 07:50 15.02349 39.04167 33018 ft 519 kts 154°
2026-04-26 07:50 14.95946 39.07621 33027 ft 519 kts 154°
2026-04-26 07:51 14.89540 39.11073 33015 ft 519 kts 154°
2026-04-26 07:51 14.83135 39.14527 33023 ft 519 kts 154°
2026-04-26 07:52 14.76729 39.17981 33020 ft 519 kts 154°
2026-04-26 07:52 14.70324 39.21432 33021 ft 519 kts 153°
2026-04-26 07:53 14.63956 39.24861 33033 ft 519 kts 154°
2026-04-26 07:53 14.57554 39.28309 33038 ft 519 kts 153°
2026-04-26 07:54 14.51148 39.31759 33047 ft 519 kts 154°
2026-04-26 07:54 14.44739 39.35199 33063 ft 519 kts 154°
2026-04-26 07:55 14.38320 39.38635 33054 ft 519 kts 153°
2026-04-26 07:55 14.31913 39.42072 33066 ft 519 kts 153°
2026-04-26 07:56 14.25511 39.45509 33065 ft 518 kts 153°
2026-04-26 07:56 14.19106 39.48948 33071 ft 518 kts 153°
2026-04-26 07:57 14.12707 39.52380 33069 ft 518 kts 153°
2026-04-26 07:57 14.06344 39.55791 33076 ft 518 kts 153°
2026-04-26 07:58 13.99951 39.59215 33071 ft 519 kts 153°
2026-04-26 07:58 13.93545 39.62644 33070 ft 519 kts 153°
2026-04-26 07:59 13.87132 39.66075 33079 ft 519 kts 153°
2026-04-26 07:59 13.80712 39.69507 33047 ft 520 kts 153°
2026-04-26 08:00 13.74292 39.72938 33054 ft 520 kts 153°
2026-04-26 08:00 13.67865 39.76370 33037 ft 521 kts 153°
2026-04-26 08:01 13.61435 39.79802 33034 ft 521 kts 153°
2026-04-26 08:01 13.55037 39.83214 33023 ft 521 kts 153°
2026-04-26 08:02 13.48564 39.86664 33001 ft 520 kts 153°
2026-04-26 08:02 13.42190 39.90060 33002 ft 520 kts 153°
2026-04-26 08:03 13.35758 39.93483 32987 ft 520 kts 153°
2026-04-26 08:03 13.29340 39.96899 32966 ft 519 kts 153°
2026-04-26 08:04 13.22881 40.00333 32969 ft 519 kts 153°
2026-04-26 08:04 13.16508 40.03719 32948 ft 519 kts 153°
2026-04-26 08:05 13.10093 40.07127 32952 ft 519 kts 153°
2026-04-26 08:05 13.03673 40.10535 32955 ft 520 kts 153°
2026-04-26 08:06 12.97248 40.13943 32936 ft 520 kts 153°
2026-04-26 08:06 12.90820 40.17352 32941 ft 520 kts 153°
2026-04-26 08:07 12.84387 40.20761 32939 ft 520 kts 153°
2026-04-26 08:07 12.77957 40.24167 32931 ft 520 kts 153°
2026-04-26 08:08 12.71524 40.27573 32931 ft 521 kts 153°
2026-04-26 08:08 12.65126 40.30959 32929 ft 521 kts 153°
2026-04-26 08:09 12.58677 40.34372 32933 ft 522 kts 153°
2026-04-26 08:09 12.52224 40.37788 32932 ft 522 kts 153°
2026-04-26 08:10 12.45771 40.41199 32938 ft 522 kts 153°
2026-04-26 08:10 12.39295 40.44553 32935 ft 521 kts 153°
2026-04-26 08:11 12.32801 40.47863 32943 ft 522 kts 153°
2026-04-26 08:11 12.26306 40.51183 32947 ft 522 kts 153°
2026-04-26 08:12 12.19812 40.54516 32949 ft 522 kts 153°
2026-04-26 08:12 12.13318 40.57852 32944 ft 521 kts 153°
2026-04-26 08:13 12.06839 40.61177 32951 ft 521 kts 153°
2026-04-26 08:13 12.00360 40.64500 32946 ft 520 kts 153°
2026-04-26 08:14 11.93893 40.67815 32952 ft 520 kts 153°
2026-04-26 08:14 11.87426 40.71127 33032 ft 522 kts 153°
2026-04-26 08:15 11.84176 40.72792 33322 ft 522 kts 153°
2026-04-26 08:15 11.80928 40.74454 33723 ft 521 kts 153°
2026-04-26 08:15 11.77695 40.76108 34097 ft 519 kts 153°
2026-04-26 08:15 11.74476 40.77755 34474 ft 517 kts 153°
2026-04-26 08:16 11.71300 40.79378 34856 ft 514 kts 153°
2026-04-26 08:16 11.68108 40.81010 35248 ft 512 kts 153°
2026-04-26 08:16 11.64930 40.82634 35655 ft 509 kts 153°
2026-04-26 08:16 11.61781 40.84244 36020 ft 507 kts 153°
2026-04-26 08:17 11.58634 40.85852 36340 ft 505 kts 153°
2026-04-26 08:17 11.55492 40.87456 36641 ft 504 kts 153°
2026-04-26 08:17 11.52354 40.89059 36872 ft 504 kts 153°
2026-04-26 08:17 11.49201 40.90670 36911 ft 507 kts 153°
2026-04-26 08:18 11.42912 40.93880 36937 ft 504 kts 153°
2026-04-26 08:18 11.36663 40.97067 36938 ft 501 kts 153°
2026-04-26 08:19 11.30449 41.00236 36943 ft 499 kts 153°
2026-04-26 08:19 11.24245 41.03398 36940 ft 498 kts 153°
2026-04-26 08:20 11.18043 41.06557 36947 ft 499 kts 153°
2026-04-26 08:20 11.11823 41.09725 36945 ft 500 kts 153°
2026-04-26 08:21 11.05601 41.12892 36951 ft 501 kts 153°
2026-04-26 08:21 10.99396 41.16048 36947 ft 502 kts 153°
2026-04-26 08:22 10.93135 41.19232 36949 ft 503 kts 153°
2026-04-26 08:22 10.87880 41.21903 36951 ft 504 kts 153°
2026-04-26 08:23 10.81644 41.25070 36953 ft 504 kts 153°
2026-04-26 08:23 10.75356 41.28263 36952 ft 504 kts 153°
2026-04-26 08:24 10.69046 41.31466 36949 ft 504 kts 153°
2026-04-26 08:24 10.62813 41.34627 36951 ft 503 kts 153°
2026-04-26 08:25 10.56554 41.37801 36948 ft 502 kts 153°
2026-04-26 08:25 10.50311 41.40966 36954 ft 502 kts 153°
2026-04-26 08:26 10.44061 41.44132 36951 ft 501 kts 153°
2026-04-26 08:26 10.37825 41.47290 36949 ft 501 kts 153°
2026-04-26 08:27 10.31591 41.50445 36952 ft 500 kts 153°
2026-04-26 08:27 10.25359 41.53599 36950 ft 500 kts 153°
2026-04-26 08:28 10.19125 41.56752 36952 ft 501 kts 153°
2026-04-26 08:28 10.12886 41.59906 36950 ft 501 kts 153°
2026-04-26 08:29 10.06647 41.63059 36947 ft 501 kts 153°
2026-04-26 08:29 10.00391 41.66220 36952 ft 502 kts 153°
2026-04-26 08:30 9.94137 41.69378 36951 ft 502 kts 153°
2026-04-26 08:30 9.87881 41.72537 36964 ft 502 kts 153°
2026-04-26 08:31 9.81662 41.75676 36981 ft 503 kts 153°
2026-04-26 08:31 9.75399 41.78837 36980 ft 503 kts 153°
2026-04-26 08:32 9.69145 41.81997 37010 ft 503 kts 153°
2026-04-26 08:32 9.62869 41.85151 37008 ft 503 kts 154°
2026-04-26 08:33 9.56503 41.88100 37033 ft 503 kts 155°
2026-04-26 08:33 9.50099 41.90967 37038 ft 503 kts 155°
2026-04-26 08:34 9.43700 41.93865 37041 ft 503 kts 155°
2026-04-26 08:34 9.37324 41.96786 37049 ft 503 kts 155°
2026-04-26 08:35 9.30956 41.99710 37056 ft 502 kts 155°
2026-04-26 08:35 9.24591 42.02631 37046 ft 502 kts 155°
2026-04-26 08:36 9.18226 42.05548 37044 ft 502 kts 155°
2026-04-26 08:36 9.11905 42.08443 37043 ft 502 kts 155°
2026-04-26 08:37 9.05536 42.11359 37032 ft 502 kts 155°
2026-04-26 08:37 8.99173 42.14271 37025 ft 502 kts 155°
2026-04-26 08:38 8.92802 42.17187 37016 ft 502 kts 155°
2026-04-26 08:38 8.86435 42.20099 37007 ft 502 kts 155°
2026-04-26 08:39 8.80064 42.23012 37012 ft 503 kts 155°
2026-04-26 08:39 8.73724 42.25911 36994 ft 503 kts 155°
2026-04-26 08:40 8.67349 42.28824 37006 ft 503 kts 155°
2026-04-26 08:40 8.60979 42.31735 36988 ft 503 kts 155°
2026-04-26 08:41 8.54602 42.34650 36991 ft 503 kts 155°
2026-04-26 08:41 8.48221 42.37568 36987 ft 503 kts 155°
2026-04-26 08:42 8.41847 42.40478 36987 ft 503 kts 155°
2026-04-26 08:42 8.35473 42.43388 36977 ft 503 kts 154°
2026-04-26 08:43 8.29141 42.46292 36978 ft 502 kts 154°
2026-04-26 08:43 8.22775 42.49208 36979 ft 502 kts 154°
2026-04-26 08:44 8.16405 42.52113 36975 ft 502 kts 155°
2026-04-26 08:44 8.10034 42.55016 36977 ft 502 kts 155°
2026-04-26 08:45 8.03664 42.57927 36974 ft 503 kts 154°
2026-04-26 08:45 7.97292 42.60841 36968 ft 503 kts 154°
2026-04-26 08:46 7.90921 42.63754 36967 ft 503 kts 155°
2026-04-26 08:46 7.84551 42.66665 36966 ft 503 kts 155°
2026-04-26 08:47 7.78178 42.69576 36963 ft 503 kts 155°
2026-04-26 08:47 7.71811 42.72484 36971 ft 503 kts 154°
2026-04-26 08:48 7.65433 42.75396 36963 ft 503 kts 155°
2026-04-26 08:48 7.59053 42.78308 36974 ft 503 kts 154°
2026-04-26 08:49 7.52671 42.81220 36973 ft 503 kts 155°
2026-04-26 08:49 7.46287 42.84132 36979 ft 504 kts 155°
2026-04-26 08:50 7.39902 42.87043 36980 ft 504 kts 155°
2026-04-26 08:50 7.33515 42.89955 36985 ft 504 kts 155°
2026-04-26 08:51 7.23946 42.94317 36985 ft 504 kts 155°
2026-04-26 08:52 7.17566 42.97224 36985 ft 503 kts 155°
2026-04-26 08:52 7.11187 43.00131 36981 ft 502 kts 155°
2026-04-26 08:53 7.04834 43.03028 36979 ft 501 kts 155°
2026-04-26 08:53 6.98475 43.05927 36982 ft 501 kts 155°
2026-04-26 08:54 6.92124 43.08813 36988 ft 501 kts 155°
2026-04-26 08:54 6.85782 43.11694 36979 ft 500 kts 155°
2026-04-26 08:55 6.79474 43.14568 36984 ft 500 kts 155°
2026-04-26 08:55 6.73132 43.17461 36977 ft 500 kts 155°
2026-04-26 08:56 6.66791 43.20353 36981 ft 500 kts 155°
2026-04-26 08:56 6.60448 43.23244 36980 ft 501 kts 155°
2026-04-26 08:57 6.54096 43.26139 36976 ft 502 kts 154°
2026-04-26 08:57 6.47726 43.29041 36973 ft 502 kts 154°
2026-04-26 08:58 6.41360 43.31941 36970 ft 503 kts 155°
2026-04-26 08:58 6.34979 43.34846 36971 ft 503 kts 154°
2026-04-26 08:59 6.28587 43.37756 36967 ft 504 kts 154°
2026-04-26 08:59 6.22199 43.40663 36963 ft 504 kts 154°
2026-04-26 09:00 6.15814 43.43569 36964 ft 503 kts 155°
2026-04-26 09:00 6.09436 43.46470 36967 ft 503 kts 155°
2026-04-26 09:01 6.03065 43.49367 36970 ft 502 kts 154°
2026-04-26 09:01 5.96705 43.52260 36962 ft 501 kts 154°
2026-04-26 09:02 5.90396 43.55129 36962 ft 501 kts 154°
2026-04-26 09:02 5.84046 43.58017 36966 ft 500 kts 154°
2026-04-26 09:03 5.77710 43.60899 36968 ft 500 kts 154°
2026-04-26 09:03 5.71389 43.63777 36956 ft 499 kts 154°
2026-04-26 09:04 5.65059 43.66651 36966 ft 498 kts 154°
2026-04-26 09:04 5.58742 43.69515 36969 ft 498 kts 154°
2026-04-26 09:05 5.52430 43.72384 36962 ft 498 kts 154°
2026-04-26 09:05 5.46118 43.75259 36972 ft 497 kts 154°
2026-04-26 09:06 5.39825 43.78126 36961 ft 497 kts 154°
2026-04-26 09:06 5.33531 43.80991 36962 ft 496 kts 154°
2026-04-26 09:07 5.28304 43.83371 36966 ft 496 kts 154°
2026-04-26 09:07 5.22019 43.86231 36964 ft 496 kts 154°
2026-04-26 09:08 5.15726 43.89096 36967 ft 496 kts 154°
2026-04-26 09:08 5.08417 43.92423 36964 ft 497 kts 154°
2026-04-26 09:09 5.03140 43.94826 36966 ft 497 kts 154°
2026-04-26 09:09 4.96837 43.97698 36959 ft 498 kts 154°
2026-04-26 09:10 4.90526 44.00565 36975 ft 498 kts 154°
2026-04-26 09:10 4.84197 44.03381 36956 ft 497 kts 154°
2026-04-26 09:11 4.77873 44.06179 36958 ft 497 kts 154°
2026-04-26 09:11 4.71596 44.08966 36961 ft 496 kts 154°
2026-04-26 09:12 4.65283 44.11778 36960 ft 496 kts 154°
2026-04-26 09:12 4.58972 44.14590 36960 ft 496 kts 154°
2026-04-26 09:13 4.52665 44.17400 36962 ft 496 kts 154°
2026-04-26 09:13 4.46367 44.20205 36962 ft 496 kts 154°
2026-04-26 09:14 4.40055 44.23015 36959 ft 496 kts 154°
2026-04-26 09:14 4.33750 44.25822 36963 ft 496 kts 154°
2026-04-26 09:15 4.27444 44.28629 36954 ft 496 kts 154°
2026-04-26 09:15 4.21138 44.31435 36959 ft 496 kts 154°
2026-04-26 09:16 4.14834 44.34239 36957 ft 496 kts 154°
2026-04-26 09:16 4.08523 44.37046 36959 ft 496 kts 154°
2026-04-26 09:17 4.02224 44.39848 36956 ft 495 kts 154°
2026-04-26 09:17 3.95973 44.42627 36950 ft 495 kts 154°
2026-04-26 09:18 3.89686 44.45422 36959 ft 494 kts 154°
2026-04-26 09:18 3.83395 44.48219 36950 ft 494 kts 154°
2026-04-26 09:19 3.77113 44.51011 36951 ft 494 kts 154°
2026-04-26 09:19 3.70825 44.53806 36946 ft 494 kts 154°
2026-04-26 09:20 3.64544 44.56596 36949 ft 494 kts 154°
2026-04-26 09:20 3.58257 44.59389 36952 ft 494 kts 154°
2026-04-26 09:21 3.52017 44.62161 36956 ft 494 kts 154°
2026-04-26 09:21 3.45731 44.64953 36950 ft 494 kts 154°
2026-04-26 09:22 3.39441 44.67746 36949 ft 495 kts 154°
2026-04-26 09:22 3.33149 44.70540 36942 ft 495 kts 154°
2026-04-26 09:23 3.26854 44.73334 36947 ft 495 kts 154°
2026-04-26 09:23 3.20554 44.76131 36937 ft 495 kts 154°
2026-04-26 09:24 3.14243 44.78932 36939 ft 496 kts 154°
2026-04-26 09:24 3.07935 44.81731 36938 ft 496 kts 154°
2026-04-26 09:25 3.01626 44.84530 36937 ft 496 kts 154°
2026-04-26 09:25 2.95317 44.87329 36935 ft 496 kts 154°
2026-04-26 09:26 2.89008 44.90128 36931 ft 496 kts 154°
2026-04-26 09:26 2.82700 44.92926 36932 ft 496 kts 154°
2026-04-26 09:27 2.76435 44.95704 36933 ft 496 kts 154°
2026-04-26 09:27 2.70087 44.98520 36935 ft 496 kts 154°
2026-04-26 09:28 2.63824 45.01297 36932 ft 496 kts 154°
2026-04-26 09:28 2.57523 45.04091 36936 ft 495 kts 154°
2026-04-26 09:29 2.51219 45.06886 36932 ft 496 kts 154°
2026-04-26 09:29 2.44913 45.09682 36933 ft 496 kts 154°
2026-04-26 09:30 2.38606 45.12478 36935 ft 496 kts 154°
2026-04-26 09:30 2.32301 45.15273 36933 ft 496 kts 154°
2026-04-26 09:31 2.25997 45.18069 36936 ft 496 kts 154°
2026-04-26 09:31 2.19694 45.20865 36934 ft 495 kts 154°
2026-04-26 09:32 2.13392 45.23663 36932 ft 495 kts 154°
2026-04-26 09:32 2.07092 45.26458 36941 ft 495 kts 154°
2026-04-26 09:33 2.00589 45.28767 36944 ft 499 kts 165°
2026-04-26 09:33 1.93716 45.29821 36938 ft 502 kts 174°
2026-04-26 09:34 1.86786 45.30184 36937 ft 502 kts 175°
2026-04-26 09:34 1.79797 45.30525 36942 ft 503 kts 175°
2026-04-26 09:35 1.72797 45.30912 36925 ft 504 kts 175°
2026-04-26 09:35 1.65794 45.31326 36921 ft 504 kts 175°
2026-04-26 09:36 1.58797 45.31743 36917 ft 504 kts 175°
2026-04-26 09:36 1.51798 45.32159 36922 ft 504 kts 175°
2026-04-26 09:37 1.44795 45.32572 36920 ft 504 kts 175°
2026-04-26 09:37 1.37790 45.32986 36918 ft 504 kts 175°
2026-04-26 09:38 1.30796 45.33399 36927 ft 503 kts 175°
2026-04-26 09:38 1.23809 45.33812 36911 ft 502 kts 175°
2026-04-26 09:39 1.16843 45.34223 36910 ft 501 kts 175°
2026-04-26 09:39 1.09897 45.34633 36911 ft 499 kts 175°
2026-04-26 09:40 1.03015 45.35040 36916 ft 498 kts 176°
2026-04-26 09:40 0.96107 45.35448 36910 ft 497 kts 176°
2026-04-26 09:41 0.89214 45.35856 36911 ft 496 kts 176°
2026-04-26 09:41 0.82332 45.36263 36913 ft 495 kts 176°
2026-04-26 09:42 0.75446 45.36671 36907 ft 496 kts 175°
2026-04-26 09:42 0.68543 45.37080 36914 ft 498 kts 175°
2026-04-26 09:43 0.61618 45.37493 36913 ft 499 kts 175°
2026-04-26 09:43 0.54672 45.37909 36911 ft 501 kts 175°
2026-04-26 09:44 0.47706 45.38319 36909 ft 502 kts 175°
2026-04-26 09:44 0.40734 45.38714 36916 ft 502 kts 176°
2026-04-26 09:45 0.33756 45.39112 36907 ft 502 kts 176°
2026-04-26 09:45 0.26789 45.39516 36908 ft 501 kts 175°
2026-04-26 09:46 0.19838 45.39921 36909 ft 500 kts 175°
2026-04-26 09:46 0.12946 45.40323 36908 ft 499 kts 175°
2026-04-26 09:47 0.06012 45.40727 36909 ft 498 kts 175°
2026-04-26 09:47 -0.00914 45.41131 36907 ft 498 kts 175°
2026-04-26 09:48 -0.07836 45.41534 36910 ft 498 kts 175°
2026-04-26 09:48 -0.14768 45.41939 36909 ft 499 kts 175°
2026-04-26 09:49 -0.21714 45.42344 36908 ft 500 kts 175°
2026-04-26 09:49 -0.28625 45.42747 36907 ft 501 kts 176°
2026-04-26 09:50 -0.35593 45.43154 36912 ft 502 kts 176°
2026-04-26 09:50 -0.42577 45.43561 36909 ft 502 kts 176°
2026-04-26 09:51 -0.49557 45.43969 36904 ft 502 kts 176°
2026-04-26 09:51 -0.56539 45.44377 36899 ft 503 kts 176°
2026-04-26 09:52 -0.63524 45.44786 36903 ft 503 kts 176°
2026-04-26 09:52 -0.74003 45.45403 36901 ft 503 kts 176°
2026-04-26 09:53 -0.80989 45.45814 36902 ft 503 kts 176°
2026-04-26 09:53 -0.87983 45.46213 36898 ft 503 kts 176°
2026-04-26 09:54 -0.94980 45.46606 36902 ft 504 kts 176°
2026-04-26 09:54 -1.01943 45.47004 36902 ft 504 kts 176°
2026-04-26 09:55 -1.08949 45.47409 36900 ft 504 kts 176°
2026-04-26 09:55 -1.15963 45.47815 36901 ft 505 kts 176°
2026-04-26 09:56 -1.21802 45.48153 36901 ft 506 kts 176°
2026-04-26 09:56 -1.28826 45.48559 36899 ft 506 kts 176°
2026-04-26 09:57 -1.35874 45.48967 36902 ft 507 kts 176°
2026-04-26 09:57 -1.42913 45.49374 36901 ft 507 kts 176°
2026-04-26 09:58 -1.49963 45.49782 36899 ft 507 kts 176°
2026-04-26 09:58 -1.57015 45.50190 36898 ft 508 kts 176°
2026-04-26 09:59 -1.64067 45.50599 36899 ft 508 kts 176°
2026-04-26 09:59 -1.71121 45.51008 36898 ft 507 kts 176°
2026-04-26 10:00 -1.78170 45.51417 36900 ft 507 kts 176°
2026-04-26 10:00 -1.85211 45.51827 36902 ft 507 kts 176°
2026-04-26 10:01 -1.92259 45.52240 36902 ft 507 kts 176°
2026-04-26 10:01 -1.99309 45.52651 36904 ft 507 kts 176°
2026-04-26 10:02 -2.06358 45.53050 36904 ft 507 kts 176°
2026-04-26 10:02 -2.13408 45.53447 36904 ft 507 kts 176°
2026-04-26 10:03 -2.20450 45.53850 36902 ft 507 kts 176°
2026-04-26 10:03 -2.27502 45.54258 36905 ft 507 kts 176°
2026-04-26 10:04 -2.34508 45.54664 36901 ft 508 kts 176°
2026-04-26 10:04 -2.41554 45.55073 36902 ft 508 kts 176°
2026-04-26 10:05 -2.48609 45.55481 36905 ft 508 kts 176°
2026-04-26 10:05 -2.55666 45.55889 36904 ft 508 kts 176°
2026-04-26 10:06 -2.62724 45.56298 36904 ft 508 kts 176°
2026-04-26 10:06 -2.69781 45.56706 36904 ft 508 kts 176°
2026-04-26 10:07 -2.76838 45.57115 36901 ft 508 kts 176°
2026-04-26 10:07 -2.83890 45.57523 36901 ft 508 kts 176°
2026-04-26 10:08 -2.90943 45.57932 36904 ft 507 kts 176°
2026-04-26 10:08 -2.97992 45.58340 36901 ft 507 kts 176°
2026-04-26 10:09 -3.05034 45.58748 36900 ft 507 kts 176°
2026-04-26 10:09 -3.12062 45.59156 36901 ft 506 kts 176°
2026-04-26 10:10 -3.19096 45.59563 36904 ft 506 kts 176°
2026-04-26 10:10 -3.26122 45.59971 36904 ft 506 kts 176°
2026-04-26 10:11 -3.33152 45.60378 36900 ft 506 kts 176°
2026-04-26 10:11 -3.40187 45.60786 36903 ft 507 kts 176°
2026-04-26 10:12 -3.47225 45.61195 36902 ft 507 kts 176°
2026-04-26 10:12 -3.54279 45.61604 36902 ft 508 kts 176°
2026-04-26 10:13 -3.61332 45.62014 36902 ft 508 kts 176°
2026-04-26 10:13 -3.68389 45.62424 36901 ft 508 kts 176°
2026-04-26 10:14 -3.75435 45.62833 36902 ft 508 kts 176°
2026-04-26 10:14 -3.82440 45.63241 36902 ft 507 kts 177°
2026-04-26 10:15 -3.89480 45.63651 36902 ft 506 kts 177°
2026-04-26 10:15 -3.96502 45.64060 36898 ft 504 kts 177°
2026-04-26 10:16 -4.03489 45.64469 36900 ft 503 kts 177°
2026-04-26 10:16 -4.10474 45.64880 36901 ft 502 kts 177°
2026-04-26 10:17 -4.17440 45.65287 36899 ft 502 kts 177°
2026-04-26 10:17 -4.24418 45.65685 36899 ft 502 kts 177°
2026-04-26 10:18 -4.31402 45.66083 36900 ft 503 kts 177°
2026-04-26 10:18 -4.38398 45.66490 36897 ft 504 kts 177°
2026-04-26 10:19 -4.45407 45.66901 36904 ft 506 kts 177°
2026-04-26 10:19 -4.52445 45.67313 36902 ft 507 kts 177°
2026-04-26 10:20 -4.58313 45.67657 36900 ft 508 kts 177°
2026-04-26 10:20 -4.66579 45.68142 36895 ft 510 kts 177°
2026-04-26 10:21 -4.73617 45.68554 36898 ft 510 kts 177°
2026-04-26 10:21 -4.80710 45.68969 36896 ft 511 kts 177°
2026-04-26 10:22 -4.87808 45.69385 36896 ft 511 kts 177°
2026-04-26 10:22 -4.94902 45.69801 36893 ft 510 kts 177°
2026-04-26 10:23 -5.01989 45.70217 36896 ft 510 kts 177°
2026-04-26 10:23 -5.09071 45.70632 36895 ft 509 kts 177°
2026-04-26 10:24 -5.16147 45.71047 36898 ft 509 kts 177°
2026-04-26 10:24 -5.23217 45.71462 36899 ft 509 kts 177°
2026-04-26 10:25 -5.30284 45.71877 36898 ft 509 kts 177°
2026-04-26 10:25 -5.37348 45.72292 36899 ft 508 kts 177°
2026-04-26 10:26 -5.44412 45.72707 36902 ft 508 kts 177°
2026-04-26 10:26 -5.51412 45.73119 36896 ft 506 kts 178°
2026-04-26 10:27 -5.58428 45.73532 36890 ft 504 kts 178°
2026-04-26 10:27 -5.65452 45.73945 36892 ft 502 kts 178°
2026-04-26 10:28 -5.72423 45.74356 36897 ft 501 kts 178°
2026-04-26 10:28 -5.79333 45.74764 36901 ft 500 kts 177°
2026-04-26 10:29 -5.86277 45.75175 36902 ft 500 kts 177°
2026-04-26 10:29 -5.93223 45.75590 36897 ft 500 kts 177°
2026-04-26 10:30 -6.00179 45.76001 36911 ft 501 kts 178°
2026-04-26 10:30 -6.07161 45.76400 36902 ft 503 kts 178°
2026-04-26 10:31 -6.14167 45.76798 36908 ft 505 kts 178°
2026-04-26 10:31 -6.21150 45.77203 36905 ft 507 kts 178°
2026-04-26 10:32 -6.28192 45.77615 36900 ft 508 kts 178°
2026-04-26 10:32 -6.35251 45.78030 36899 ft 508 kts 178°
2026-04-26 10:33 -6.42317 45.78444 36899 ft 509 kts 178°
2026-04-26 10:33 -6.49384 45.78858 36898 ft 509 kts 178°
2026-04-26 10:34 -6.56447 45.79271 36904 ft 508 kts 177°
2026-04-26 10:34 -6.63478 45.79684 36898 ft 505 kts 177°
2026-04-26 10:35 -6.70487 45.80095 36894 ft 503 kts 177°
2026-04-26 10:35 -6.77471 45.80504 36899 ft 501 kts 177°
2026-04-26 10:36 -6.84429 45.80912 36900 ft 501 kts 177°
2026-04-26 10:36 -6.91388 45.81320 36903 ft 501 kts 177°
2026-04-26 10:37 -6.98349 45.81728 36903 ft 502 kts 177°
2026-04-26 10:37 -7.05332 45.82139 36903 ft 503 kts 177°
2026-04-26 10:38 -7.12278 45.82547 36900 ft 504 kts 178°
2026-04-26 10:38 -7.19286 45.82959 36904 ft 505 kts 178°
2026-04-26 10:39 -7.26304 45.83371 36899 ft 506 kts 178°
2026-04-26 10:39 -7.33336 45.83784 36902 ft 506 kts 178°
2026-04-26 10:40 -7.40372 45.84198 36903 ft 506 kts 178°
2026-04-26 10:40 -7.47407 45.84612 36900 ft 506 kts 178°
2026-04-26 10:41 -7.54437 45.85026 36901 ft 506 kts 178°
2026-04-26 10:41 -7.61459 45.85439 36901 ft 505 kts 178°
2026-04-26 10:42 -7.67285 45.85782 36905 ft 505 kts 178°
2026-04-26 10:42 -7.75479 45.86264 36900 ft 504 kts 178°
2026-04-26 10:43 -7.81297 45.86607 36901 ft 504 kts 178°
2026-04-26 10:43 -7.88299 45.87020 36902 ft 504 kts 178°
2026-04-26 10:44 -7.96477 45.87502 36902 ft 504 kts 178°
2026-04-26 10:44 -8.02299 45.87845 36901 ft 504 kts 178°
2026-04-26 10:45 -8.09297 45.88258 36904 ft 504 kts 178°
2026-04-26 10:45 -8.16297 45.88671 36906 ft 504 kts 178°
2026-04-26 10:46 -8.23304 45.89085 36908 ft 505 kts 178°
2026-04-26 10:46 -8.30336 45.89500 36905 ft 507 kts 178°
2026-04-26 10:47 -8.37381 45.89916 36903 ft 507 kts 178°
2026-04-26 10:47 -8.44438 45.90334 36904 ft 508 kts 178°
2026-04-26 10:48 -8.51497 45.90752 36904 ft 508 kts 178°
2026-04-26 10:48 -8.58542 45.91169 36899 ft 507 kts 178°
2026-04-26 10:49 -8.65574 45.91585 36900 ft 505 kts 178°
2026-04-26 10:49 -8.72538 45.91997 36900 ft 504 kts 178°
2026-04-26 10:50 -8.79539 45.92412 36899 ft 503 kts 178°
2026-04-26 10:50 -8.86527 45.92826 36902 ft 502 kts 178°
2026-04-26 10:51 -8.96983 45.93445 36900 ft 502 kts 178°
2026-04-26 10:52 -9.03952 45.93859 36904 ft 501 kts 178°
2026-04-26 10:52 -9.10917 45.94272 36898 ft 501 kts 178°
2026-04-26 10:53 -9.17881 45.94686 36904 ft 501 kts 178°
2026-04-26 10:53 -9.24843 45.95099 36904 ft 501 kts 178°
2026-04-26 10:54 -9.35239 45.95718 36907 ft 501 kts 178°
2026-04-26 10:54 -9.42200 45.96132 36907 ft 501 kts 178°
2026-04-26 10:55 -9.49164 45.96547 36905 ft 501 kts 178°
2026-04-26 10:55 -9.56126 45.96962 36907 ft 501 kts 179°
2026-04-26 10:56 -9.63086 45.97377 36902 ft 501 kts 178°
2026-04-26 10:56 -9.70047 45.97793 36904 ft 501 kts 178°
2026-04-26 10:57 -9.77003 45.98210 36907 ft 500 kts 178°
2026-04-26 10:57 -9.83947 45.98628 36908 ft 500 kts 178°
2026-04-26 10:58 -9.90898 45.99048 36907 ft 500 kts 179°
2026-04-26 10:58 -9.97844 45.99231 36908 ft 498 kts 186°
2026-04-26 10:59 -10.04666 45.98158 36905 ft 495 kts 197°
2026-04-26 10:59 -10.11174 45.96089 36911 ft 494 kts 200°
2026-04-26 11:00 -10.17713 45.93927 36908 ft 494 kts 200°
2026-04-26 11:00 -10.24268 45.91795 36911 ft 495 kts 200°
2026-04-26 11:01 -10.30840 45.89683 36908 ft 495 kts 199°
2026-04-26 11:01 -10.37425 45.87573 36909 ft 498 kts 199°
2026-04-26 11:02 -10.44051 45.85449 36912 ft 500 kts 199°
2026-04-26 11:02 -10.50705 45.83314 36910 ft 502 kts 199°
2026-04-26 11:03 -10.57379 45.81171 36911 ft 503 kts 199°
2026-04-26 11:03 -10.64061 45.79024 36909 ft 504 kts 199°
2026-04-26 11:04 -10.70753 45.76873 36902 ft 504 kts 200°
2026-04-26 11:04 -10.77441 45.74722 36909 ft 504 kts 200°
2026-04-26 11:05 -10.84125 45.72570 36905 ft 503 kts 200°
2026-04-26 11:05 -10.90796 45.70422 36907 ft 503 kts 200°
2026-04-26 11:06 -10.97501 45.68261 36153 ft 514 kts 200°
2026-04-26 11:06 -11.00913 45.67160 35398 ft 514 kts 200°
2026-04-26 11:06 -11.04332 45.66059 34484 ft 516 kts 200°
2026-04-26 11:07 -11.07765 45.64954 33515 ft 519 kts 200°
2026-04-26 11:07 -11.11212 45.63844 32462 ft 520 kts 200°
2026-04-26 11:07 -11.14660 45.62734 31421 ft 521 kts 200°
2026-04-26 11:07 -11.18067 45.61637 30585 ft 517 kts 200°
2026-04-26 11:08 -11.21468 45.60542 29957 ft 508 kts 200°
2026-04-26 11:08 -11.24873 45.59444 28964 ft 505 kts 200°
2026-04-26 11:08 -11.28155 45.58384 28249 ft 498 kts 199°
2026-04-26 11:08 -11.31426 45.57327 27575 ft 491 kts 199°
2026-04-26 11:09 -11.34660 45.56281 26926 ft 485 kts 199°
2026-04-26 11:09 -11.37855 45.55248 26298 ft 479 kts 199°
2026-04-26 11:09 -11.41021 45.54224 25666 ft 474 kts 198°
2026-04-26 11:09 -11.44144 45.53214 25034 ft 470 kts 198°
2026-04-26 11:10 -11.47253 45.52208 24401 ft 466 kts 198°
2026-04-26 11:10 -11.50326 45.51213 23786 ft 463 kts 198°
2026-04-26 11:10 -11.53388 45.50222 23103 ft 460 kts 197°
2026-04-26 11:10 -11.56432 45.49238 22417 ft 456 kts 197°
2026-04-26 11:11 -11.59445 45.48264 21786 ft 452 kts 197°
2026-04-26 11:11 -11.62428 45.47299 21167 ft 448 kts 197°
2026-04-26 11:11 -11.65379 45.46343 20557 ft 444 kts 198°
2026-04-26 11:11 -11.68318 45.45392 19945 ft 440 kts 198°
2026-04-26 11:12 -11.71229 45.44449 19320 ft 437 kts 197°
2026-04-26 11:12 -11.74121 45.43512 18706 ft 435 kts 198°
2026-04-26 11:12 -11.76977 45.42587 18070 ft 424 kts 198°
2026-04-26 11:12 -11.79729 45.41695 17411 ft 406 kts 198°
2026-04-26 11:13 -11.82360 45.40842 16820 ft 388 kts 198°
2026-04-26 11:13 -11.84881 45.40025 16276 ft 373 kts 198°
2026-04-26 11:13 -11.87314 45.39235 15757 ft 362 kts 198°
2026-04-26 11:13 -11.89696 45.38462 15252 ft 359 kts 199°
2026-04-26 11:14 -11.92099 45.37681 14801 ft 377 kts 199°
2026-04-26 11:14 -11.94664 45.36847 14229 ft 394 kts 199°
2026-04-26 11:14 -11.97291 45.35996 13622 ft 397 kts 199°
2026-04-26 11:14 -11.99072 45.35419 13182 ft 396 kts 199°
2026-04-26 11:15 -12.02531 45.34298 12422 ft 391 kts 198°
2026-04-26 11:15 -12.05117 45.33459 11855 ft 388 kts 198°
2026-04-26 11:15 -12.07672 45.32629 11311 ft 384 kts 198°
2026-04-26 11:15 -12.10205 45.31807 10954 ft 376 kts 198°
2026-04-26 11:16 -12.12651 45.31012 10727 ft 357 kts 198°
2026-04-26 11:16 -12.14927 45.30273 10551 ft 329 kts 199°
2026-04-26 11:16 -12.17028 45.29589 10409 ft 305 kts 199°
2026-04-26 11:16 -12.18978 45.28954 10257 ft 283 kts 199°
2026-04-26 11:17 -12.20785 45.28364 10157 ft 262 kts 199°
2026-04-26 11:17 -12.22495 45.27806 10074 ft 260 kts 199°
2026-04-26 11:17 -12.24265 45.27228 10007 ft 275 kts 199°
2026-04-26 11:17 -12.26135 45.26620 9703 ft 287 kts 198°
2026-04-26 11:18 -12.28052 45.25998 9359 ft 289 kts 198°
2026-04-26 11:18 -12.29969 45.25376 9015 ft 288 kts 198°
2026-04-26 11:18 -12.31874 45.24757 8688 ft 287 kts 198°
2026-04-26 11:18 -12.33772 45.24139 8361 ft 285 kts 197°
2026-04-26 11:19 -12.35662 45.23525 8027 ft 284 kts 197°
2026-04-26 11:19 -12.37545 45.22913 7705 ft 284 kts 197°
2026-04-26 11:19 -12.39424 45.22301 7374 ft 283 kts 197°
2026-04-26 11:19 -12.41300 45.21691 7050 ft 282 kts 197°
2026-04-26 11:20 -12.43171 45.21082 6728 ft 282 kts 197°
2026-04-26 11:20 -12.44410 45.20680 6519 ft 282 kts 197°
2026-04-26 11:20 -12.46898 45.19870 6116 ft 280 kts 197°
2026-04-26 11:20 -12.48727 45.19276 5792 ft 279 kts 197°
2026-04-26 11:21 -12.50577 45.18674 5460 ft 278 kts 197°
2026-04-26 11:21 -12.52409 45.18080 5192 ft 274 kts 197°
2026-04-26 11:21 -12.54229 45.17489 4856 ft 275 kts 197°
2026-04-26 11:21 -12.56039 45.16899 4621 ft 271 kts 197°
2026-04-26 11:22 -12.57817 45.16318 4444 ft 265 kts 197°
2026-04-26 11:22 -12.59543 45.15753 4316 ft 256 kts 196°
2026-04-26 11:22 -12.61256 45.15504 4021 ft 246 kts 172°
2026-04-26 11:22 -12.62830 45.16073 3774 ft 239 kts 147°
2026-04-26 11:23 -12.64006 45.17234 3534 ft 235 kts 126°
2026-04-26 11:23 -12.64635 45.18751 3276 ft 232 kts 102°
2026-04-26 11:23 -12.64591 45.20381 3110 ft 230 kts 76°
2026-04-26 11:23 -12.63879 45.21855 3043 ft 236 kts 52°
2026-04-26 11:24 -12.62611 45.22950 2996 ft 243 kts 31°
2026-04-26 11:24 -12.61021 45.23491 2909 ft 242 kts
2026-04-26 11:24 -12.59340 45.23461 2925 ft 245 kts 360°
2026-04-26 11:24 -12.57632 45.23374 2880 ft 246 kts 348°
2026-04-26 11:25 -12.56084 45.22684 2929 ft 243 kts 328°
2026-04-26 11:25 -12.54621 45.21785 2907 ft 246 kts 329°
2026-04-26 11:25 -12.53180 45.20917 2901 ft 242 kts 329°
2026-04-26 11:25 -12.51739 45.20047 2901 ft 240 kts 329°
2026-04-26 11:26 -12.50302 45.19180 2906 ft 240 kts 329°
2026-04-26 11:26 -12.48961 45.18206 2877 ft 235 kts 309°
2026-04-26 11:26 -12.48187 45.16743 2920 ft 238 kts 283°
2026-04-26 11:26 -12.48039 45.15056 2904 ft 238 kts 261°
2026-04-26 11:27 -12.48538 45.13487 2897 ft 230 kts 237°
2026-04-26 11:27 -12.49604 45.12309 2901 ft 225 kts 213°
2026-04-26 11:27 -12.51026 45.11692 2892 ft 223 kts 190°
2026-04-26 11:27 -12.52583 45.11615 2895 ft 227 kts 174°
2026-04-26 11:28 -12.54074 45.12117 2913 ft 228 kts 154°
2026-04-26 11:28 -12.55448 45.12931 2909 ft 229 kts 151°
2026-04-26 11:28 -12.56814 45.13777 2907 ft 230 kts 151°
2026-04-26 11:28 -12.58180 45.14629 2893 ft 229 kts 150°
2026-04-26 11:29 -12.59533 45.15478 2907 ft 228 kts 150°
2026-04-26 11:29 -12.60896 45.16315 2889 ft 228 kts 151°
2026-04-26 11:29 -12.62259 45.17122 2888 ft 223 kts 152°
2026-04-26 11:29 -12.63554 45.17887 2878 ft 206 kts 152°
2026-04-26 11:30 -12.64757 45.18598 2877 ft 196 kts 153°
2026-04-26 11:30 -12.65539 45.19058 2934 ft 194 kts 152°
2026-04-26 11:30 -12.66986 45.19914 2892 ft 170 kts 152°
2026-04-26 11:30 -12.68044 45.20541 2735 ft 180 kts 153°
2026-04-26 11:31 -12.69127 45.21182 2508 ft 178 kts 153°
2026-04-26 11:31 -12.70181 45.21806 2265 ft 172 kts 153°
2026-04-26 11:31 -12.71204 45.22415 2064 ft 168 kts 153°
2026-04-26 11:31 -12.72185 45.22997 1889 ft 156 kts 153°
2026-04-26 11:32 -12.72789 45.23358 1731 ft 147 kts 153°
2026-04-26 11:32 -12.73911 45.24026 1517 ft 136 kts 154°
2026-04-26 11:32 -12.74466 45.24352 1429 ft 139 kts 154°
2026-04-26 11:32 -12.75587 45.25011 1167 ft 139 kts 153°
2026-04-26 11:33 -12.76420 45.25529 986 ft 141 kts 152°
2026-04-26 11:33 -12.77262 45.26024 737 ft 136 kts 152°
2026-04-26 11:33 -12.77810 45.26358 647 ft 137 kts 153°
2026-04-26 11:33 -12.78637 45.26862 497 ft 140 kts 153°
2026-04-26 11:34 -12.79483 45.27369 312 ft 142 kts 154°
2026-04-26 11:34 -12.80331 45.27866 83 ft 133 kts 154°
2026-04-26 11:34 -12.80991 45.28247 54 ft 71 kts 149°
2026-04-26 11:34 -12.81158 45.28347 58 ft 9 kts 150°
2026-04-26 11:35 -12.81249 45.28400 63 ft 20 kts 150°
2026-04-26 11:35 -12.81400 45.28490 64 ft 30 kts 150°
2026-04-26 11:35 -12.81539 45.28573 68 ft 9 kts 150°
2026-04-26 11:35 -12.81595 45.28603 68 ft 9 kts 157°
2026-04-26 11:36 -12.81646 45.28611 72 ft 4 kts 175°
2026-04-26 11:36 -12.81667 45.28629 65 ft 4 kts 113°
2026-04-26 11:36 -12.81653 45.28652 68 ft 4 kts 28°
2026-04-26 11:36 -12.81626 45.28640 69 ft 5 kts 316°
2026-04-26 11:37 -12.81593 45.28610 66 ft 7 kts 322°
2026-04-26 11:37 -12.81543 45.28576 66 ft 10 kts 329°
2026-04-26 11:37 -12.81478 45.28537 66 ft 12 kts 330°
2026-04-26 11:37 -12.81400 45.28491 64 ft 14 kts 330°
2026-04-26 11:38 -12.81308 45.28437 63 ft 16 kts 329°
2026-04-26 11:38 -12.81204 45.28375 60 ft 19 kts 330°
2026-04-26 11:38 -12.81083 45.28303 55 ft 22 kts 330°
2026-04-26 11:38 -12.80943 45.28221 50 ft 24 kts 330°
2026-04-26 11:39 -12.80804 45.28140 49 ft 19 kts 330°
2026-04-26 11:39 -12.80703 45.28080 46 ft 16 kts 330°
2026-04-26 11:39 -12.80627 45.28035 47 ft 11 kts 330°
2026-04-26 11:39 -12.80560 45.27995 47 ft 12 kts 330°
2026-04-26 11:40 -12.80485 45.27958 46 ft 12 kts 359°
2026-04-26 11:40 -12.80437 45.28002 47 ft 9 kts 60°
2026-04-26 11:40 -12.80413 45.28047 50 ft 6 kts 60°
2026-04-26 11:40 -12.80393 45.28086 48 ft 6 kts 70°
2026-04-26 11:41 -12.80390 45.28126 46 ft 4 kts 102°
2026-04-26 11:42 -12.80355 45.28207 50 ft 0 kts 31°